GFSCGP_con_3kmhel_057.txt.gz
Helicity
126 245 96 74 83 82 43 114 51 71 58 51 31 102 73 47 64 88 55 120 100 87 40 58 80 123 150 106 87 73 67 57 64 64 62 67 60 54 63 74 84 94 94 95
81 185 117 69 107 187 81 110 87 50 45 31 41 25 6 17 36 49 70 118 96 100 79 49 77 93 140 146 103 76 61 59 64 73 65 60 75 78 79 104 97 96 99 113
75 55 123 92 116 159 144 130 65 32 53 43 48 47 26 9 24 -5 -3 50 150 102 85 55 101 82 131 154 151 121 94 82 68 84 113 154 157 170 141 127 119 144 146 144
58 75 171 73 147 84 72 91 79 98 45 55 7 91 -18 -0 13 11 12 36 53 122 140 99 61 123 118 145 162 161 133 120 130 131 129 111 115 114 145 200 178 135 129 140
74 105 127 68 75 115 113 80 91 60 42 84 6 58 72 30 37 38 31 29 37 32 190 184 163 124 139 162 159 164 124 126 116 105 107 119 131 177 186 156 144 128 124 136
29 74 59 55 60 127 60 59 70 56 53 74 67 43 97 43 55 70 72 47 31 25 37 200 248 159 161 176 231 258 183 172 167 160 150 162 174 164 162 156 148 139 140 135
135 160 145 180 100 107 66 63 163 160 142 119 121 60 80 89 21 21 53 126 118 116 59 50 120 197 179 161 167 171 157 142 158 138 155 186 193 183 157 141 128 125 114 111
105 127 169 151 60 93 81 51 118 128 95 55 67 54 51 66 81 49 20 56 83 96 125 95 70 154 153 145 143 133 113 149 146 226 183 178 151 134 126 122 126 117 126 143
59 83 106 60 123 91 56 92 126 199 182 168 23 40 17 39 44 60 66 47 79 86 84 92 98 114 175 144 87 43 105 134 148 152 143 148 144 143 137 128 131 133 142 145
53 94 78 98 208 141 101 101 109 141 60 44 24 42 53 42 97 117 133 142 128 87 68 74 90 80 96 150 211 197 84 77 121 138 155 158 146 138 131 127 124 130 134 131
87 68 104 114 150 69 118 114 140 131 137 141 95 68 125 104 108 119 115 120 148 130 68 38 55 85 141 160 240 277 290 269 192 156 159 155 139 132 127 111 104 107 122 122
108 51 100 95 140 140 142 61 42 75 37 75 125 112 33 60 73 57 47 52 37 62 30 16 33 77 118 154 188 247 282 260 252 209 160 129 115 98 79 73 85 103 107 127
68 43 88 58 47 53 69 48 70 54 83 63 98 87 -23 15 32 -10 -20 11 56 -3 -61 -32 20 62 86 108 142 176 193 198 195 167 128 110 95 82 71 79 89 98 109 123
79 22 63 64 66 31 42 28 31 49 93 62 41 24 33 30 19 35 57 79 77 63 -12 13 55 61 62 66 97 122 135 139 138 135 128 113 89 77 79 92 100 118 131 130
65 46 44 44 48 59 51 16 17 43 17 50 21 23 41 36 76 80 86 75 44 26 30 81 85 100 93 83 82 94 98 105 107 103 96 84 79 83 93 110 118 129 140 150
57 52 50 60 62 51 43 38 40 19 11 19 22 32 28 60 94 78 72 57 72 77 58 70 67 96 100 90 94 107 114 119 113 98 91 90 80 99 105 105 103 105 122 141
85 91 71 74 66 63 56 53 42 54 58 70 57 95 128 105 89 63 69 65 47 34 40 49 54 88 107 100 112 118 117 114 101 99 93 86 89 92 95 103 103 108 113 131
54 75 99 90 74 90 102 76 91 102 109 125 117 137 130 102 78 82 60 77 61 55 58 41 50 76 99 103 145 160 155 125 123 120 108 101 113 101 113 114 111 124 119 123
59 58 78 88 79 106 57 91 112 110 132 156 153 130 111 102 65 61 136 48 34 37 32 42 70 71 78 124 181 177 192 157 140 128 115 112 102 109 122 115 114 124 133 158
73 77 78 86 105 112 202 104 96 90 71 147 129 102 88 83 41 64 88 88 59 48 48 40 82 86 87 144 198 187 183 155 147 127 118 117 102 104 120 125 138 125 115 129
41 49 47 57 94 116 131 99 86 80 124 115 71 52 45 28 36 48 44 41 17 26 50 52 60 92 93 148 144 121 148 145 136 137 134 127 116 115 120 144 136 125 125 105
45 44 43 51 66 68 108 89 114 108 42 39 23 10 7 13 22 27 28 25 29 37 46 51 68 92 131 127 106 114 129 137 136 140 135 112 101 127 135 125 123 100 102 70
57 73 85 68 91 81 70 47 39 25 22 21 19 14 7 -3 -4 8 13 24 25 19 29 30 44 68 95 104 110 129 127 131 138 138 143 130 99 93 100 114 113 95 76 53
60 69 56 59 84 48 49 57 47 71 38 21 27 26 26 14 18 25 35 30 27 17 30 39 40 49 71 84 109 128 141 145 154 151 181 213 91 95 100 98 108 95 88 70
121 84 77 45 46 45 44 90 69 37 25 33 41 27 11 8 -2 7 37 58 50 37 28 43 45 48 53 64 80 109 140 156 154 143 192 240 107 110 122 111 94 84 66 74
89 100 92 101 103 39 33 43 36 20 37 52 28 13 35 25 7 16 8 60 64 67 47 51 72 66 70 78 79 101 170 173 149 142 131 135 166 146 131 123 103 30 40 45

GFSCGP_con_3kmhel_060.txt.gz
Helicity
129 191 165 117 113 106 46 50 19 95 -37 93 89 77 100 77 85 54 108 132 97 184 75 126 85 48 108 106 129 147 136 113 116 121 113 98 87 63 62 72 84 105 112 111
155 97 38 37 80 71 89 7 27 61 22 62 84 124 78 46 99 106 99 114 82 84 130 212 131 59 80 131 118 143 140 125 110 112 110 93 83 64 58 72 103 124 147 160
107 147 106 177 92 108 60 17 76 76 67 67 66 131 80 -43 12 16 67 84 137 96 109 217 126 77 97 127 151 139 134 132 126 108 111 137 171 137 147 154 163 159 150 171
192 238 201 257 63 172 177 39 113 59 79 67 6 132 116 56 10 52 8 26 77 177 157 112 212 126 113 146 197 232 211 178 188 165 175 177 171 161 158 198 205 197 157 156
199 92 186 239 99 186 190 59 44 68 95 114 22 78 66 33 75 60 56 45 46 52 153 229 203 208 143 171 190 219 233 205 205 224 201 174 178 186 185 197 191 150 124 119
88 132 179 188 153 147 163 210 274 230 206 168 94 63 118 48 47 37 62 93 72 53 68 106 276 331 276 182 199 210 211 216 157 158 167 139 141 169 162 169 176 158 151 131
59 174 202 146 176 178 120 140 255 257 222 190 138 95 87 95 74 58 66 112 196 196 106 96 161 253 294 238 191 200 206 204 167 148 232 216 172 157 151 173 168 165 146 133
80 48 97 98 124 121 150 171 208 258 185 145 119 109 89 63 115 87 71 70 80 129 147 195 126 189 194 271 246 210 198 190 190 188 348 314 230 204 198 172 175 162 160 175
191 136 116 172 137 136 78 81 162 216 186 187 77 57 69 25 52 70 94 95 82 93 117 127 213 209 252 222 200 186 195 186 182 186 213 237 202 210 151 221 167 143 148 149
87 126 181 120 158 121 121 57 102 180 186 178 67 38 59 82 94 115 125 124 119 98 71 74 87 151 199 196 148 164 156 167 124 118 165 166 154 163 154 115 100 114 130 145
69 47 78 79 75 70 125 123 141 134 145 157 108 118 111 138 130 68 77 79 58 73 100 86 61 63 118 149 158 184 247 296 368 354 335 130 115 89 69 68 82 102 144 134
90 71 84 78 104 107 109 67 86 109 119 109 160 134 54 83 83 50 45 41 26 -62 -44 34 50 49 94 118 167 199 247 297 313 344 269 222 227 209 153 92 94 149 138 144
112 65 132 90 64 77 70 60 69 73 97 97 117 90 64 55 34 14 -17 -16 14 -38 -101 -62 -0 3 48 107 128 165 204 202 233 286 264 273 238 221 187 148 144 128 117 139
87 36 63 73 72 57 67 64 60 100 108 71 64 64 62 37 18 44 58 42 49 -2 -7 -45 -52 7 87 98 107 124 145 186 226 218 222 202 175 156 147 133 131 151 163 160
73 52 52 75 87 80 76 38 55 112 68 98 46 35 61 21 -1 24 19 20 28 36 40 54 56 100 120 133 130 132 120 133 163 163 161 146 139 136 144 178 203 189 175 153
51 55 41 27 28 36 39 60 50 28 34 32 27 22 37 37 23 61 45 40 60 77 83 69 74 80 151 171 184 161 148 147 156 140 137 148 161 154 151 156 150 145 133 113
60 52 54 52 39 39 45 43 25 58 82 102 90 114 126 150 121 61 76 118 98 73 55 40 34 68 137 192 230 203 191 202 184 160 159 160 146 160 133 134 114 126 113 114
68 84 96 75 77 77 68 75 92 147 196 224 196 221 145 87 80 78 144 93 56 39 32 42 39 23 89 169 233 250 237 226 208 191 180 176 174 167 159 141 126 140 128 127
61 55 71 92 79 92 88 99 103 123 153 162 178 139 115 97 82 73 73 54 38 27 29 30 30 36 59 116 256 289 266 249 227 207 204 192 217 203 173 152 147 150 141 139
63 70 78 79 102 119 139 96 76 83 107 130 121 90 70 58 48 47 44 70 87 48 38 27 34 34 45 122 268 311 282 258 227 218 198 208 218 189 156 142 159 161 151 143
65 65 64 65 85 102 101 79 70 82 70 95 79 56 33 29 27 24 15 18 20 25 28 14 20 41 58 127 253 286 256 210 198 187 186 210 203 177 149 154 168 176 157 140
53 61 58 68 71 64 71 60 85 93 92 70 46 20 -5 5 12 8 -1 -11 7 32 51 18 19 26 78 122 147 155 152 140 159 184 199 203 180 168 187 183 169 159 136 119
63 81 72 92 75 61 67 59 56 65 30 17 -2 -0 6 13 15 15 25 25 44 77 84 36 18 23 66 79 97 101 107 141 167 188 195 180 165 183 190 209 165 139 119 103
45 63 82 86 105 68 56 132 137 51 -2 -11 1 14 31 21 10 17 20 17 26 87 107 53 43 32 44 52 65 76 122 133 165 166 162 152 171 188 195 226 154 130 107 86
62 74 102 91 147 101 147 83 27 6 24 31 29 21 14 19 11 3 9 21 30 54 109 59 64 45 37 70 66 89 134 134 146 151 173 181 167 143 202 207 119 114 91 82
99 111 100 103 101 86 75 58 45 49 51 36 24 29 31 25 16 24 34 30 25 44 59 81 74 65 69 78 77 77 107 104 103 150 186 169 164 144 161 172 125 74 74 48

GFSCGP_con_3kmhel_063.txt.gz
Helicity
76 71 80 284 180 152 121 132 95 82 10 84 74 101 110 90 69 72 57 96 82 125 74 93 91 73 76 98 119 123 130 125 154 167 158 138 132 115 96 85 59 63 63 56
60 41 129 195 264 135 60 44 67 35 -21 14 82 18 56 80 90 90 78 73 83 124 173 95 101 106 79 74 100 132 136 154 148 143 146 142 99 87 81 66 82 113 144 141
82 -32 161 183 164 191 152 79 77 107 88 24 49 192 146 79 19 14 78 98 96 77 116 169 161 142 109 87 66 100 138 143 155 145 162 178 170 145 114 89 133 162 175 170
112 43 20 83 98 90 123 46 24 116 130 149 55 117 117 50 6 -60 -30 49 41 89 136 137 167 175 120 59 108 125 160 160 148 164 194 226 178 192 135 162 187 193 191 166
146 85 60 90 101 103 84 81 68 106 121 128 98 129 133 133 96 0 -59 -23 19 53 76 138 168 191 200 181 189 214 230 218 251 219 203 218 179 185 219 229 220 181 179 167
237 170 180 189 153 62 128 234 175 181 108 123 40 41 100 71 94 70 67 18 26 47 43 74 131 253 273 254 222 220 228 227 243 247 238 213 225 267 213 215 210 182 168 160
216 262 252 168 145 138 175 183 170 302 257 120 112 72 87 165 76 61 86 104 152 152 92 95 149 190 248 208 209 195 177 188 197 204 220 210 180 169 171 174 168 151 168 166
163 147 200 258 256 179 158 122 67 68 94 150 161 107 108 57 98 89 94 92 131 160 153 167 102 131 132 145 180 194 189 185 211 232 259 262 244 232 235 272 283 269 171 197
192 134 176 221 247 180 175 189 136 145 171 171 139 109 91 64 112 116 133 122 106 97 130 162 139 99 139 179 162 173 226 217 185 199 235 223 201 210 203 201 266 203 176 180
102 79 110 109 163 147 146 120 201 220 186 177 136 117 99 137 98 88 103 102 108 101 92 79 104 114 120 116 111 122 155 176 194 177 156 159 176 173 145 159 162 132 114 88
115 90 131 116 125 115 116 132 162 155 156 167 196 207 31 54 40 44 60 71 45 34 48 73 99 71 49 83 106 107 131 151 190 212 236 257 239 315 316 222 135 98 96 93
42 89 101 57 109 107 62 84 100 89 131 149 147 153 69 45 27 23 9 42 23 -20 -57 -38 -7 29 71 79 71 92 131 169 199 222 238 235 273 334 318 295 205 186 130 103
76 52 95 90 80 69 59 62 91 81 76 105 133 139 43 37 64 92 98 127 112 29 -15 -54 -55 -23 -9 23 52 88 122 154 182 197 212 227 220 230 210 203 208 174 168 170
98 56 39 62 59 54 43 31 52 82 69 65 86 153 149 127 97 119 123 101 94 100 85 25 -29 -25 3 38 108 114 121 131 152 182 186 179 175 180 188 175 172 186 158 134
62 76 63 63 68 76 71 62 71 84 59 84 35 73 63 7 37 55 42 60 55 56 59 62 63 29 76 119 122 119 114 125 149 167 158 140 152 155 165 181 178 163 150 143
46 57 41 38 37 47 43 46 41 34 47 33 18 22 13 59 53 72 48 -3 6 33 80 102 75 79 44 84 131 162 153 149 166 151 131 131 137 140 147 157 160 156 149 149
41 39 37 17 28 36 29 16 28 56 86 53 40 76 82 86 72 35 17 40 62 84 78 75 60 55 69 65 85 170 213 198 184 154 141 151 162 163 159 157 155 144 147 150
66 80 77 59 82 66 46 67 87 142 187 207 213 162 98 68 70 11 79 84 69 72 66 67 51 53 61 51 69 113 250 214 204 182 166 168 172 167 164 157 157 158 163 145
50 69 81 87 69 67 69 77 91 100 130 139 118 117 94 111 90 66 98 41 6 16 30 30 39 49 52 52 69 134 235 262 222 186 184 196 198 183 168 163 171 166 152 147
57 60 72 86 102 75 70 69 71 79 93 99 119 118 94 64 66 57 20 -12 20 22 16 29 62 63 50 55 47 143 204 245 207 219 212 212 209 205 185 174 176 177 169 156
42 67 61 71 80 88 78 75 82 99 73 98 97 71 48 39 26 7 -25 -16 9 32 31 85 72 64 36 35 52 125 196 210 242 200 197 211 213 194 171 166 180 175 178 167
-36 -51 -54 22 20 39 57 73 63 53 67 62 38 21 7 0 0 3 1 6 30 47 65 135 115 114 54 42 50 88 100 119 147 181 200 194 176 183 172 168 154 168 168 168
-22 13 -7 49 41 58 104 126 109 98 57 30 8 21 28 15 17 17 19 33 43 38 45 113 99 100 86 50 45 51 61 92 128 155 160 169 183 186 178 165 143 164 151 173
15 56 97 84 94 126 156 122 91 56 43 29 43 37 31 28 28 32 35 38 35 41 48 71 67 87 93 58 44 42 49 83 122 139 154 178 205 181 166 149 145 168 180 189
45 44 55 123 156 198 155 101 58 58 46 35 24 8 -8 -5 -2 9 24 28 35 38 37 35 61 80 94 65 63 47 52 98 124 140 155 177 173 145 146 128 136 148 156 113
75 91 111 90 128 119 110 105 89 88 81 50 36 31 2 -27 -41 -36 -21 -8 3 20 32 32 51 80 99 83 65 74 65 93 117 123 132 145 168 158 164 143 126 68 69 43

GFSCGP_con_3kmhel_069.txt.gz
Helicity
91 104 82 92 135 240 62 19 67 219 208 62 27 342 425 411 452 244 208 186 185 134 116 113 85 87 84 117 190 190 165 147 168 191 145 105 56 172 153 119 92 125 105 109
109 62 60 99 117 151 51 53 40 128 -33 48 76 100 152 334 360 196 174 144 130 123 112 85 66 102 101 61 89 123 131 125 150 159 193 205 204 157 149 126 115 118 115 111
94 48 76 66 69 122 29 68 76 97 132 137 86 165 86 88 282 180 155 125 113 101 92 82 82 49 75 91 77 63 82 102 94 152 239 247 170 154 155 146 137 135 108 111
74 44 44 84 47 56 99 59 -29 -113 -7 74 58 202 69 125 102 82 97 91 69 75 74 83 65 73 64 56 89 65 69 66 89 150 160 158 170 188 150 156 167 184 176 193
75 59 -8 51 167 127 169 116 26 2 4 55 63 98 72 73 42 7 -28 28 55 51 64 71 62 50 55 35 81 95 77 78 79 118 142 153 144 147 158 189 156 169 182 155
36 80 41 50 166 128 114 119 167 98 138 96 61 56 96 83 56 36 20 29 48 69 65 64 63 62 73 105 117 134 121 91 90 90 148 173 147 170 196 235 184 250 330 289
78 130 122 62 93 144 91 72 105 104 86 153 87 80 111 161 175 133 104 102 113 89 65 53 50 60 57 77 85 110 122 117 118 116 116 132 131 142 170 227 237 296 295 240
98 85 64 91 58 64 77 39 61 89 109 124 98 100 117 119 113 107 122 101 104 116 120 119 98 68 56 70 63 88 120 135 108 127 106 95 88 148 195 255 264 228 180 228
126 165 195 189 87 86 87 58 69 94 116 111 90 100 49 90 132 125 122 136 154 152 151 161 157 112 87 75 65 62 86 107 125 134 106 77 79 84 138 168 177 190 188 163
54 142 198 258 140 94 67 46 94 137 143 132 105 91 47 61 67 99 148 151 157 167 183 186 181 178 145 100 75 68 67 65 79 81 77 85 105 137 146 169 169 160 136 163
52 64 131 132 155 99 118 94 101 60 93 114 156 111 105 53 103 129 121 137 135 132 129 122 134 147 147 127 109 94 71 60 59 71 81 88 100 131 153 205 217 209 170 169
61 47 89 77 111 82 92 85 64 65 55 94 80 104 122 120 129 135 134 117 115 115 99 86 80 69 60 62 66 63 43 35 37 51 68 82 110 120 129 168 204 215 211 198
57 41 40 55 50 53 54 76 81 88 106 111 94 117 199 183 188 150 119 108 96 86 96 79 72 49 51 58 55 49 41 36 42 50 64 84 105 120 134 158 184 190 194 193
67 80 24 4 -8 31 38 47 63 68 60 57 75 111 174 200 179 157 134 112 96 74 52 49 55 40 34 20 29 55 70 58 59 69 85 102 111 125 143 170 187 202 210 203
50 57 74 85 49 38 20 26 44 55 44 44 46 78 116 123 133 128 110 93 99 101 74 42 36 31 23 26 35 38 47 35 67 90 105 118 129 133 139 155 172 192 190 182
101 56 69 101 89 72 63 94 63 60 78 94 88 105 134 134 106 99 94 86 90 86 62 43 18 12 14 13 12 20 44 62 38 75 103 115 129 150 141 147 161 171 169 154
37 46 59 22 69 66 52 52 54 75 126 105 96 117 161 159 136 62 48 46 38 47 57 56 39 4 5 22 29 28 21 30 42 59 110 134 146 152 153 145 151 144 132 129
27 40 27 11 43 -11 31 50 56 110 87 101 145 155 181 144 107 94 97 70 47 25 25 8 -3 4 11 15 29 27 21 23 34 58 101 156 175 172 177 166 152 151 145 115
70 -3 -28 -22 -7 18 54 57 79 97 86 96 119 130 144 154 122 90 104 59 27 11 4 6 4 11 28 38 41 34 44 16 29 52 95 153 187 191 201 177 164 154 147 125
-48 -18 -43 -17 -8 -2 16 86 99 95 82 116 120 116 113 117 110 72 93 45 29 12 8 17 44 56 52 69 49 23 41 42 37 47 83 138 207 213 211 214 183 172 156 119
-13 -22 -3 4 5 -5 15 43 59 70 54 55 80 85 85 87 73 75 56 41 23 20 19 27 46 59 56 60 26 14 39 68 58 54 72 137 207 215 230 231 223 187 152 137
3 19 25 20 30 35 41 67 66 27 48 37 42 50 54 48 45 47 49 47 53 55 60 65 59 62 61 58 34 33 55 80 65 56 73 126 192 201 210 207 211 190 169 140
26 18 20 36 31 7 20 36 95 80 77 66 70 61 56 68 80 90 102 100 92 90 88 72 77 82 73 59 74 58 84 87 71 57 67 88 125 157 168 186 190 191 161 148
-4 14 17 23 29 55 77 127 127 117 116 108 109 106 104 102 104 114 100 94 91 75 69 51 54 56 62 48 51 66 79 84 72 71 65 76 98 123 150 182 192 185 172 155
16 26 52 38 41 73 64 109 132 140 124 119 103 96 98 97 86 78 87 81 72 67 52 50 37 27 20 17 26 39 67 86 75 72 70 67 84 103 129 139 148 148 130 138
40 75 115 70 59 95 57 127 131 109 84 80 90 96 89 92 92 93 89 74 58 40 33 29 25 23 24 22 26 28 36 56 65 74 89 89 91 110 129 139 134 82 92 86

GFSCGP_con_3kmhel_075.txt.gz
Helicity
-23 6 21 -28 -48 1 130 30 82 69 75 10 -95 159 109 178 117 213 219 196 209 31 17 130 60 71 42 70 32 82 44 -26 93 130 197 115 95 66 108 78 50 39 62 46
49 67 -1 -72 -90 118 42 74 73 -7 53 -20 -17 39 254 148 200 249 292 244 198 173 105 68 113 79 121 85 75 163 88 12 67 29 84 23 66 73 95 183 54 49 37 103
68 49 46 -41 77 -33 55 69 194 58 159 197 18 40 196 267 192 238 290 240 186 144 166 153 134 63 83 19 33 138 151 72 50 2 96 153 85 106 83 88 165 -8 57 72
58 29 42 14 33 58 62 40 -54 64 179 168 110 95 203 218 180 215 203 205 174 164 184 208 139 77 60 36 65 50 82 79 94 53 17 36 64 68 -27 81 42 34 90 51
31 22 49 3 14 66 40 11 -5 -12 132 74 173 171 256 130 178 130 160 174 238 256 185 115 112 100 102 86 75 61 43 52 72 93 127 64 157 89 23 72 36 58 73 85
40 59 42 20 22 59 63 29 79 63 -9 55 172 161 247 204 174 118 102 204 277 233 170 139 129 125 145 158 166 134 98 126 112 96 93 92 107 117 103 117 93 103 117 136
109 87 26 100 118 70 72 29 61 50 64 106 80 125 165 207 144 115 138 117 285 223 178 137 189 198 181 178 155 130 127 151 150 125 113 99 101 96 83 96 115 155 198 184
71 73 102 169 88 48 79 86 38 60 125 127 75 90 122 50 71 135 198 212 369 310 217 216 215 198 195 185 174 154 150 152 187 189 162 117 89 76 75 76 89 123 163 185
101 106 143 137 75 66 105 68 54 85 160 159 104 77 89 55 81 88 105 131 183 214 253 268 253 223 195 180 164 138 120 126 149 185 176 162 146 139 128 113 101 112 141 172
55 53 77 111 61 34 28 40 49 123 154 157 99 83 50 46 65 100 149 175 192 212 247 240 234 233 207 180 150 135 127 116 104 105 130 134 140 127 101 86 76 79 102 142
62 34 57 35 23 43 23 48 19 9 53 60 97 96 30 -10 27 67 78 101 143 162 174 172 172 179 169 162 166 159 147 124 124 112 95 82 77 87 97 92 83 87 109 154
62 58 65 36 55 38 33 11 38 35 41 37 43 53 32 22 54 57 66 70 84 99 115 109 117 127 137 132 115 104 100 96 84 65 59 57 55 56 59 72 80 84 100 136
52 -46 2 33 13 6 20 35 21 23 32 45 35 21 61 81 84 77 77 86 95 103 120 112 117 116 109 109 95 86 72 74 79 80 69 59 45 44 55 72 88 108 136 159
19 15 -28 -56 -35 -20 -3 14 30 32 27 15 34 9 30 63 76 78 80 86 103 111 110 102 98 90 77 68 57 51 51 49 68 99 112 98 89 89 83 83 97 122 149 178
34 19 30 32 29 13 1 -1 -2 13 -10 20 16 15 -10 31 50 71 90 95 99 110 114 101 93 81 65 66 69 65 59 70 64 64 71 89 91 82 89 98 110 130 146 169
54 13 17 41 35 22 21 17 -13 -3 10 15 35 32 33 91 111 107 114 124 131 122 116 104 84 74 69 73 67 63 64 74 66 63 61 57 61 64 72 98 110 124 145 166
-3 -4 1 7 32 19 5 14 12 9 24 21 27 29 70 97 105 107 111 126 126 115 89 77 59 37 28 32 40 48 49 53 51 57 67 65 67 61 63 94 122 131 142 172
-9 -2 -1 -9 6 -27 14 12 11 -1 1 8 12 68 115 114 121 122 119 98 89 78 68 53 31 20 18 26 37 34 35 33 36 48 63 79 71 73 70 79 107 136 165 154
-9 -13 -16 -16 -13 4 -17 -14 -25 -29 -36 -36 -45 90 111 123 131 120 111 112 86 73 55 32 24 22 26 34 39 35 42 43 39 39 53 70 79 92 83 82 96 147 160 153
-23 -39 -49 -41 -44 -19 -27 -37 -32 -40 -40 2 28 37 68 85 44 74 68 74 67 59 52 54 61 58 54 57 49 47 50 47 45 64 85 79 57 60 80 83 102 157 179 181
-62 -63 -34 -29 -42 -40 -41 -34 -24 -30 -10 19 34 51 65 62 70 84 75 77 81 88 98 96 95 94 99 81 71 89 73 60 62 57 61 90 78 57 57 71 96 148 177 181
-37 -22 -29 -19 -18 -21 7 8 12 23 43 41 49 55 69 75 77 76 82 88 102 109 112 106 100 88 82 65 59 60 57 48 38 39 34 47 66 62 58 59 82 124 168 169
-15 -6 -13 13 8 11 17 27 51 65 77 65 72 82 83 78 75 92 88 99 109 111 111 106 89 81 72 43 29 45 39 22 26 29 40 26 37 36 47 60 72 105 141 166
-8 23 19 12 27 26 38 55 73 81 87 103 102 98 94 91 97 91 92 100 106 104 90 62 46 41 43 30 26 1 8 19 9 29 27 36 38 46 30 37 54 90 128 145
28 48 42 35 33 47 47 69 96 111 122 135 127 117 106 123 129 128 144 148 134 104 72 45 31 22 30 28 41 28 7 7 19 33 40 47 47 57 59 45 46 61 98 124
86 84 93 46 62 89 66 76 137 149 140 131 129 129 130 142 144 164 169 156 129 105 85 68 52 43 45 45 58 75 55 31 26 41 58 56 59 64 77 75 63 25 20 41

GFSCGP_con_3kmhel_078.txt.gz
Helicity
29 10 -23 66 52 25 -57 25 25 24 134 44 98 62 90 200 49 9 20 21 23 94 187 171 166 84 35 -27 -44 94 115 131 103 57 47 70 92 80 67 55 50 34 40 49
9 16 46 33 -15 -23 -6 35 74 59 86 49 -8 42 111 143 119 23 37 -20 104 99 56 144 84 93 9 24 -63 -59 -48 -17 61 73 183 111 111 99 33 83 43 20 51 47
59 57 24 26 -14 50 56 47 30 50 92 83 -50 -69 7 85 43 85 104 108 181 126 4 82 53 30 37 46 74 33 12 10 -29 -24 19 164 130 135 36 83 74 58 83 34
100 64 24 139 75 41 43 33 102 72 163 78 93 -31 -20 125 49 59 143 192 177 134 83 10 -3 -13 2 28 2 32 -8 32 26 50 -5 27 63 104 121 141 58 70 129 107
56 26 13 23 88 92 16 -17 -38 -10 246 114 149 23 117 133 97 141 230 277 239 225 116 145 86 99 83 71 43 27 76 19 21 19 14 46 13 20 97 79 49 16 45 175
73 29 39 35 95 51 88 -37 -59 -23 58 113 92 100 128 180 273 134 188 261 269 298 201 120 133 140 110 106 107 76 84 104 82 67 30 6 0 87 115 69 3 30 44 69
57 59 46 31 91 83 47 6 59 72 100 126 158 134 188 208 172 148 157 223 255 129 100 149 141 138 138 160 187 165 151 179 176 184 145 85 75 95 96 76 57 -21 -14 32
85 105 86 84 74 40 38 22 35 129 105 122 114 197 195 184 133 157 236 248 211 237 189 166 122 147 170 196 196 161 151 151 167 190 204 189 154 120 90 74 100 88 131 144
88 112 108 78 85 76 70 57 59 107 114 89 105 114 122 100 99 76 171 236 211 228 174 193 153 182 187 188 191 168 138 127 132 135 152 179 169 144 119 99 96 112 119 122
87 99 93 93 105 102 72 82 105 135 132 117 106 111 49 33 27 23 103 141 126 206 331 168 180 196 185 176 159 152 143 134 123 113 106 101 123 134 115 105 116 113 107 115
71 63 43 43 34 56 54 79 67 56 73 50 57 31 -3 -7 -27 -20 -8 9 42 55 73 95 129 140 143 142 150 152 152 144 135 118 105 98 99 99 101 101 105 104 110 114
45 37 36 33 44 89 80 79 62 -13 27 51 25 -16 -49 -85 -22 -2 28 50 67 75 95 129 148 142 136 125 111 99 93 97 99 90 83 76 65 64 70 75 78 80 85 99
73 52 38 39 48 50 43 49 62 50 27 39 44 -4 -4 -22 3 21 45 64 82 103 118 122 124 124 119 111 97 82 78 80 78 84 92 92 91 90 82 71 67 68 68 76
59 30 58 46 33 37 31 36 50 43 52 39 67 21 -6 -3 6 16 48 75 85 92 96 91 85 85 85 80 79 79 72 66 67 65 69 77 96 101 98 102 101 100 99 100
42 11 1 2 8 6 12 27 35 44 53 72 31 8 15 12 24 46 65 75 88 94 98 95 86 69 57 46 43 45 44 56 67 78 89 88 85 88 88 84 90 100 110 124
38 26 35 57 48 20 -2 2 5 18 24 33 15 49 -3 52 71 70 80 84 90 98 103 91 79 70 63 60 59 54 57 63 55 59 65 62 72 87 95 84 77 90 104 119
14 6 29 26 49 54 10 32 30 11 10 18 14 37 42 58 62 79 91 98 110 112 112 118 112 105 90 73 58 56 54 45 48 54 68 74 72 74 85 89 72 78 95 117
-6 6 20 13 29 2 17 43 39 25 13 12 16 33 49 77 103 111 103 99 103 103 100 99 90 82 78 70 76 85 86 80 73 69 73 79 78 89 92 82 79 77 96 111
0 9 6 11 3 -1 0 -3 -8 -13 -25 -20 -30 8 68 89 84 74 81 87 78 74 72 68 69 73 69 67 74 72 74 79 81 90 91 92 95 94 93 92 92 81 81 103
-5 -14 -10 -15 -14 4 -43 -30 -27 -26 -29 5 17 45 58 71 43 102 72 76 69 69 74 79 85 78 88 99 94 106 109 104 103 89 87 80 83 92 105 102 86 80 74 89
-30 -31 -19 -7 -8 -29 -25 0 2 -21 1 41 29 42 57 58 77 93 75 69 76 88 111 120 128 131 140 114 100 110 95 87 59 42 40 48 49 59 66 76 89 82 76 87
-8 6 -1 -10 -5 -5 28 33 0 35 46 51 44 44 50 64 75 74 81 92 104 116 123 136 138 132 120 104 83 72 62 51 41 37 33 41 36 34 40 50 59 71 69 80
8 4 -1 14 11 30 33 30 45 45 51 59 56 68 69 71 67 79 94 104 121 129 136 135 124 117 102 86 63 64 60 49 43 36 44 48 60 63 57 51 60 65 71 101
21 32 11 4 31 30 42 42 45 60 61 76 85 84 87 78 83 86 108 128 144 150 156 140 116 101 66 39 25 5 16 36 49 60 69 75 73 87 84 81 72 74 81 98
17 43 23 19 20 27 41 53 60 77 90 103 109 107 102 99 97 113 122 129 130 130 126 104 66 35 38 55 76 114 120 106 97 97 100 101 98 93 97 99 93 92 94 92
86 70 67 32 42 53 69 58 68 93 100 110 109 111 110 103 111 131 137 148 139 120 96 70 48 56 74 116 129 133 127 107 89 79 76 74 73 70 74 83 96 84 75 88

GFSCGP_con_3kmhel_081.txt.gz
Helicity
36 45 26 8 20 -12 -18 8 5 14 1 20 13 30 70 105 116 74 42 61 38 -12 40 24 78 146 142 88 -8 153 151 247 315 124 95 106 94 89 103 103 92 94 87 89
1 -33 -30 -1 -8 -1 21 21 -27 14 3 59 24 49 43 20 88 117 121 45 26 31 65 65 213 214 172 94 22 67 75 192 102 141 103 118 96 107 102 112 112 88 74 75
-67 6 -7 14 3 25 50 114 59 1 -33 41 53 60 30 36 23 46 89 56 56 7 48 -27 65 173 113 80 29 23 64 90 129 103 134 145 121 100 84 101 120 115 98 75
81 56 68 68 64 77 55 65 44 99 3 54 43 32 10 33 57 -19 23 21 41 172 142 60 85 115 88 28 151 61 54 74 99 83 58 56 134 107 111 105 97 67 91 100
23 24 44 62 71 93 7 11 -23 25 52 -11 5 22 4 -27 27 43 35 54 105 150 118 195 9 -20 -57 -27 -32 -57 -19 -69 -86 -97 -16 64 59 76 168 -2 141 25 40 32
91 33 27 62 114 54 -49 -31 7 149 84 25 67 57 14 58 169 253 91 178 129 133 100 134 41 8 -8 18 13 24 -14 -5 -2 7 33 -2 48 21 50 -29 36 10 80 5
37 42 35 68 38 41 16 30 74 177 98 79 91 74 5 59 139 178 108 143 203 210 199 143 55 77 76 90 93 79 89 75 58 84 89 35 -12 48 62 -11 -6 -18 -26 -7
79 45 43 23 103 29 26 24 92 92 50 52 47 89 83 111 113 139 189 157 264 264 285 312 87 57 53 101 113 91 98 109 111 123 125 137 160 152 108 55 38 26 35 22
106 79 97 93 54 38 29 43 77 93 61 123 182 176 82 59 65 136 196 197 234 289 174 152 86 70 105 111 128 133 121 120 121 126 131 139 144 138 137 121 121 84 69 90
183 70 83 94 94 124 125 123 146 88 85 72 96 114 98 96 79 107 177 194 204 208 215 149 84 94 121 143 139 130 123 123 126 113 105 93 97 112 121 117 106 92 99 105
184 127 111 90 100 96 111 121 102 65 59 56 39 55 57 35 14 20 35 77 102 119 86 82 80 112 120 142 138 140 148 143 129 118 105 96 96 91 92 91 96 96 104 105
50 81 79 69 94 104 136 87 67 66 34 48 13 -9 -32 -33 -25 -20 -26 -16 -1 10 24 44 77 91 106 116 117 117 98 96 102 92 81 79 76 75 70 67 71 79 74 80
62 82 91 76 86 83 74 110 112 90 44 37 20 -30 -30 -2 -10 -18 -6 13 21 39 45 56 58 73 70 67 64 60 63 69 64 66 77 79 81 78 76 75 73 71 70 69
102 46 47 44 34 70 62 77 78 37 45 35 39 15 17 10 17 0 14 27 34 44 55 59 60 58 56 52 50 53 48 42 47 51 58 73 88 93 89 82 80 86 91 87
53 36 38 38 30 35 44 53 57 48 73 63 49 35 24 20 32 13 19 28 34 43 55 61 60 53 46 44 42 44 51 63 65 73 78 82 74 76 77 86 92 88 89 99
43 34 17 23 30 10 22 42 48 62 67 42 46 44 15 35 54 55 50 45 44 57 64 65 63 61 51 42 41 46 59 65 61 69 78 86 97 106 98 88 82 76 82 97
13 24 40 34 41 39 18 40 41 22 32 40 30 37 33 44 40 44 64 71 80 81 71 64 54 55 61 68 75 77 71 65 71 72 76 83 92 98 101 108 111 106 92 95
3 9 20 25 50 13 7 2 13 16 0 -6 -11 -15 -11 -12 25 74 79 73 82 88 102 107 91 73 66 59 55 42 37 48 46 47 64 76 82 85 92 92 100 109 107 94
15 22 12 19 2 -4 -14 -14 -12 -21 -28 -24 -29 -33 31 89 61 24 75 111 113 105 105 96 96 99 107 122 129 120 108 94 78 76 63 52 45 52 63 74 82 88 87 93
10 9 11 -3 5 29 -31 -37 -38 -31 -29 5 22 39 45 52 9 130 91 94 92 84 73 63 65 65 74 106 109 114 131 126 137 112 90 64 42 36 44 47 51 54 67 76
-11 -2 23 37 45 11 -3 3 -3 19 14 39 35 52 58 65 101 110 92 72 80 90 93 92 90 88 94 88 85 77 77 75 68 58 54 49 45 38 34 31 39 41 43 43
21 26 22 20 21 16 48 39 12 36 46 55 58 62 62 81 85 88 84 82 83 90 97 97 103 106 104 94 91 75 71 73 72 74 77 79 83 81 73 63 52 51 51 43
17 8 9 19 13 29 41 31 52 48 50 58 59 77 84 84 83 99 107 108 110 117 125 126 113 103 99 86 83 80 87 123 120 114 109 111 112 113 102 105 89 86 78 56
12 19 25 5 33 30 37 41 42 53 64 80 98 104 102 96 112 115 112 108 105 109 107 104 101 103 97 89 91 108 134 153 141 125 115 115 111 108 113 109 101 92 86 85
31 48 28 20 13 30 34 40 57 71 91 103 119 128 127 130 130 125 113 113 115 114 114 113 109 102 82 118 160 167 154 142 135 110 101 97 94 82 87 90 91 95 91 70
95 79 77 55 85 60 86 74 62 86 98 124 137 137 142 144 131 126 113 109 106 111 107 99 95 92 122 173 149 126 119 124 120 110 101 93 95 91 87 83 74 59 59 59

GFSCGP_con_3kmhel_084.txt.gz
Helicity
40 45 52 22 43 53 -16 -39 -7 3 -5 21 25 16 -28 4 51 100 161 103 34 66 133 71 53 60 89 80 115 90 46 75 73 118 84 77 102 124 161 145 109 101 105 95
-28 -27 1 7 -59 -18 12 11 3 28 12 13 46 -18 24 68 45 69 94 80 65 87 97 26 -9 48 186 138 95 93 87 152 100 132 183 115 129 148 143 145 179 148 144 142
-25 0 67 48 62 42 68 93 97 39 15 -10 25 -2 41 28 -2 37 68 38 66 20 31 17 25 60 97 75 94 37 67 140 181 144 200 146 191 198 191 158 134 189 180 135
27 63 62 47 71 105 87 97 102 75 9 -76 -29 -3 6 37 54 27 26 33 -2 44 71 59 79 60 21 203 173 32 76 107 188 125 119 121 182 195 112 125 102 86 187 75
40 42 48 48 53 49 40 -13 15 40 -5 3 -10 32 20 47 67 93 25 -9 40 92 122 91 73 125 134 79 118 83 62 58 79 62 18 94 61 45 156 94 91 122 48 90
93 40 32 10 34 51 1 -8 19 -5 0 4 -14 5 -2 45 28 118 69 141 99 126 154 96 98 128 -25 -73 -42 -47 10 30 5 43 -61 -16 118 39 123 56 97 68 32 120
51 105 42 28 27 7 3 41 66 21 9 7 14 9 -23 19 13 112 46 116 128 146 138 141 121 40 42 90 47 7 14 5 8 40 26 40 -47 -15 -59 -31 -40 6 -100 -66
48 61 31 17 53 15 2 65 140 41 33 53 73 45 32 49 64 77 117 156 146 152 121 145 105 106 113 118 35 1 26 39 33 47 76 68 71 49 -17 56 23 6 13 50
59 77 100 146 108 35 45 76 171 91 79 134 105 132 104 50 71 109 115 118 123 160 231 240 220 104 67 50 33 58 72 91 86 87 84 88 109 125 100 111 83 66 65 24
74 63 71 72 64 98 129 183 102 97 71 87 128 119 84 35 23 32 84 100 118 152 133 105 80 56 44 50 67 84 89 93 96 96 90 75 71 80 99 94 100 93 76 57
134 93 66 135 91 89 116 116 112 136 83 81 65 70 58 24 14 33 79 151 148 134 140 143 85 46 46 53 69 94 98 107 111 104 90 87 84 81 79 76 75 70 70 73
84 87 100 93 95 94 149 133 83 38 73 59 8 9 -33 -17 -23 -33 -12 58 84 81 63 36 30 36 53 67 73 74 73 65 63 67 73 62 60 67 65 65 63 66 67 60
71 75 97 102 87 105 118 114 96 89 64 14 -58 -63 -33 -42 -41 -36 -25 -35 -27 -8 0 -2 3 15 36 49 52 57 50 51 58 68 70 63 70 78 77 78 78 75 72 66
65 44 45 39 51 84 62 72 93 22 -16 -11 15 35 10 18 9 2 -2 -2 4 0 1 11 25 31 34 39 38 39 39 46 56 57 63 68 81 82 82 89 89 93 89 83
32 14 29 13 9 19 31 44 73 107 40 1 -28 28 35 44 39 37 39 33 34 41 39 42 41 38 38 37 33 31 38 40 43 59 75 82 84 88 91 93 91 99 103 104
26 0 6 3 13 12 16 50 22 38 57 36 65 37 52 63 69 70 48 52 67 63 60 56 45 46 46 43 34 33 26 26 29 44 51 58 69 78 82 81 85 95 100 106
12 27 27 41 39 37 34 28 13 -14 -3 5 -21 -3 74 92 109 67 77 81 85 82 75 75 75 65 66 53 47 45 51 54 58 51 49 46 52 54 58 65 73 83 91 103
18 5 17 33 24 17 21 1 4 0 -23 -19 -34 -7 15 19 85 122 135 74 97 106 116 102 83 69 51 45 56 47 48 55 66 77 84 78 74 71 66 68 73 70 67 79
17 24 9 14 13 3 -6 -11 -14 -24 -35 -34 -32 -24 17 98 81 51 129 161 156 123 99 92 86 75 63 65 65 68 57 54 45 56 61 53 50 61 69 78 84 86 88 83
5 13 3 10 51 59 -7 -20 -32 -27 -2 -25 3 41 62 74 106 109 117 124 129 122 117 121 119 112 111 114 121 117 115 98 92 77 65 53 51 57 61 47 44 49 66 72
4 2 22 28 38 19 -1 -7 -17 24 38 27 28 61 72 88 88 121 138 120 125 117 115 97 49 43 54 84 98 103 102 111 100 89 77 71 66 60 47 47 54 44 40 46
25 19 24 17 24 17 22 16 40 46 45 68 76 95 112 153 130 129 124 109 113 104 93 76 91 99 93 86 92 84 76 79 102 110 100 93 83 77 67 58 45 35 49 62
34 46 50 51 44 18 36 40 47 48 64 69 78 99 112 130 145 139 118 122 113 103 90 91 97 98 93 80 81 79 88 127 119 109 103 98 94 89 83 79 81 76 53 57
39 38 59 17 52 52 65 83 80 75 89 99 110 131 132 141 151 134 126 122 120 123 123 115 107 104 94 108 117 143 154 126 126 128 119 115 112 101 101 111 114 111 97 72
60 74 64 53 44 91 67 87 104 118 132 137 156 167 178 160 147 139 130 124 113 103 98 107 105 101 101 110 113 110 126 134 141 130 117 109 105 101 100 94 91 96 90 75
136 107 138 73 110 122 113 105 91 128 134 140 158 157 154 156 144 141 136 121 117 106 118 115 110 127 129 135 126 131 122 124 130 125 122 112 103 98 96 91 77 55 52 46

GFSCGP_con_3kmhel_087.txt.gz
Helicity
42 84 92 46 51 39 7 4 3 24 35 13 49 0 10 118 9 9 9 39 37 39 92 132 146 117 70 63 37 42 53 51 56 41 49 102 198 121 71 21 93 146 128 132
-11 -55 9 19 20 40 19 19 59 45 31 29 11 26 6 49 24 53 -11 26 80 22 102 91 121 138 120 134 59 81 51 74 48 105 116 137 163 98 78 88 69 82 109 116
25 -4 18 66 27 24 149 96 68 61 14 75 20 -10 16 32 15 27 21 44 38 16 51 82 111 112 94 121 131 106 76 68 143 110 174 159 254 288 233 130 141 145 165 154
6 4 1 21 125 133 181 154 157 108 34 -56 35 -36 1 19 17 34 57 39 53 40 35 64 112 82 64 91 194 138 38 103 184 152 164 168 239 295 282 147 210 94 143 227
7 -7 -14 34 78 32 121 36 31 42 37 36 -6 -42 7 -7 10 23 29 18 25 94 110 102 95 117 125 165 198 203 145 63 244 195 197 156 220 217 215 191 149 197 114 55
52 7 4 18 38 70 78 28 54 3 -2 31 31 89 2 19 4 24 28 62 55 64 119 182 127 114 204 164 122 169 126 104 192 246 130 90 47 97 129 70 94 99 32 72
33 41 33 36 37 20 6 10 54 27 30 31 6 3 -17 10 -15 27 -15 41 74 176 175 149 86 116 91 72 90 53 66 77 147 102 64 -10 88 84 56 121 121 91 81 42
55 44 46 34 23 31 35 56 87 31 27 56 61 39 1 -14 -39 -38 20 50 93 114 175 194 157 146 137 52 47 49 59 31 -20 -23 -9 25 25 29 78 -10 -26 8 -34 -21
57 64 56 76 68 64 69 165 78 67 48 66 84 59 30 29 14 28 66 114 116 90 106 137 107 157 100 37 25 20 26 44 65 61 43 40 52 65 45 51 39 2 13 21
67 58 60 70 111 118 167 148 99 70 66 66 93 133 59 37 28 49 81 96 115 94 147 115 124 71 69 39 48 56 63 64 68 66 57 49 57 54 63 73 81 52 46 53
75 61 84 105 94 121 128 142 124 135 92 81 78 121 76 19 -3 -7 25 42 61 68 74 88 67 57 53 60 50 45 48 62 78 75 63 63 74 80 84 81 70 57 53 55
97 91 92 91 84 104 173 184 84 47 70 33 36 75 115 8 -13 -5 -26 26 32 26 84 110 93 64 40 33 29 24 31 41 49 44 42 44 50 59 69 75 80 77 76 71
36 67 71 74 66 79 121 143 75 52 38 49 39 47 53 49 19 11 -2 1 4 -2 -32 -38 -27 -4 0 12 21 30 35 41 40 36 32 42 59 65 67 71 73 72 71 77
41 31 46 53 66 89 64 114 114 20 9 48 27 -13 2 17 15 10 7 5 5 -2 -5 -1 2 11 21 27 24 19 20 25 34 41 39 41 45 47 55 60 69 74 83 86
28 9 21 29 27 14 25 31 71 76 26 -18 -65 -38 7 24 19 5 8 7 17 19 20 20 18 24 31 38 36 37 36 39 40 49 62 76 85 88 78 82 93 98 96 105
9 25 -3 7 -7 -9 -3 45 49 60 37 13 -4 -1 22 25 33 64 49 40 42 39 37 41 46 46 42 40 39 38 37 52 61 64 73 79 91 101 105 99 106 102 106 104
17 15 14 29 22 20 22 40 23 9 12 5 14 18 54 51 67 61 54 60 53 38 31 40 46 57 41 25 31 28 26 41 50 57 71 83 88 91 92 92 82 82 92 102
19 13 9 31 8 34 29 18 17 7 7 10 27 68 71 83 77 64 58 89 99 101 95 77 59 46 39 47 46 49 67 83 94 91 88 85 84 88 87 85 82 74 79 87
4 -2 -1 6 19 9 3 2 2 -3 10 -7 14 27 88 124 144 149 138 156 153 129 103 90 75 60 47 51 56 76 82 89 105 114 112 100 88 83 79 79 74 73 76 78
-3 -20 -6 20 46 83 36 -3 -14 -14 60 14 25 47 66 91 106 73 114 134 139 122 103 92 79 95 109 102 107 115 115 111 104 89 74 63 64 69 79 72 73 75 70 65
22 19 38 38 40 40 20 24 14 53 60 37 42 58 73 83 77 88 111 119 113 104 104 102 110 107 97 101 120 133 131 123 96 62 47 43 40 47 38 43 44 46 52 72
49 42 51 40 43 35 36 31 65 49 37 56 66 71 103 120 124 125 129 123 115 99 82 76 84 86 89 107 118 102 102 106 87 80 88 94 88 77 60 49 47 33 27 -8
54 70 57 80 60 47 45 53 59 62 75 73 92 110 143 146 139 145 148 152 134 113 102 109 113 106 112 113 126 124 125 127 129 125 119 127 127 123 108 93 89 95 95 82
35 53 61 17 36 69 88 83 91 86 97 125 139 149 162 192 187 187 180 157 143 137 132 140 136 127 117 145 142 143 145 147 155 161 147 131 122 111 104 113 112 110 106 116
74 85 74 56 35 57 74 95 97 120 142 167 166 160 168 180 185 176 158 158 148 141 144 144 132 131 132 146 147 145 137 141 148 141 129 122 118 105 93 80 75 74 72 76
201 188 198 94 79 97 66 116 121 139 132 142 160 160 165 174 171 165 162 151 142 145 146 142 141 154 157 164 147 120 116 139 154 149 139 135 118 107 98 94 80 54 50 56

GFSCGP_con_3kmhel_093.txt.gz
Helicity
72 84 59 65 72 58 31 65 72 120 111 51 46 30 49 98 87 55 33 30 77 162 124 115 124 122 133 149 117 122 109 105 129 112 113 120 119 121 135 152 120 159 207 275
81 57 40 10 10 19 21 23 55 51 31 48 26 32 82 72 50 49 39 37 65 100 108 94 119 153 161 149 141 130 82 106 101 89 94 86 105 122 114 138 118 79 165 210
48 20 40 15 19 44 49 52 19 65 87 3 -15 -6 70 55 43 73 49 38 70 81 163 158 165 166 168 171 155 129 94 58 73 71 81 86 78 114 94 141 125 133 110 229
38 25 15 14 27 36 19 -17 14 43 30 39 49 -19 -1 26 25 27 33 15 87 82 113 133 171 169 152 107 108 82 81 71 51 56 80 81 93 107 121 140 164 220 196 285
6 9 4 15 31 21 17 6 5 23 -12 28 78 39 -41 18 5 -11 -27 15 27 36 31 44 64 75 99 110 120 114 102 133 99 39 69 104 -20 -49 126 79 59 306 197 232
-8 5 -0 35 19 48 48 -12 -9 2 31 70 16 64 6 4 -5 -15 -14 -22 24 49 39 59 76 95 164 206 145 161 133 120 190 179 317 172 63 131 167 79 103 296 210 201
-9 25 25 48 11 -13 -35 -51 -46 18 72 106 -3 16 19 -14 -31 -45 -67 -80 -34 19 32 42 114 159 111 216 241 172 289 186 241 179 199 224 104 157 64 88 101 226 179 141
64 65 39 24 -1 -42 -13 16 35 90 76 53 25 39 7 -59 -6 -39 -55 -54 -22 37 97 97 123 146 126 227 224 222 163 159 109 238 256 276 90 88 115 -13 66 -18 60 32
66 54 10 29 21 18 3 50 34 28 36 68 72 71 40 5 -43 -66 -48 -34 8 3 70 144 145 156 212 163 187 105 61 129 105 46 -26 72 95 68 21 96 123 116 90 133
33 33 49 24 59 100 47 16 28 31 55 47 55 59 68 34 3 -3 -20 -14 7 36 78 178 173 111 149 145 99 73 45 34 26 24 23 8 17 25 21 32 1 15 70 60
46 51 43 44 72 101 150 122 104 77 67 45 64 75 64 91 92 82 36 15 18 45 83 126 141 151 82 49 28 14 15 41 38 27 23 35 57 56 44 49 57 60 49 55
73 37 52 62 71 89 102 96 97 115 109 77 56 68 15 40 52 45 40 23 28 62 90 122 117 88 44 38 46 50 39 19 5 1 17 39 45 48 58 65 75 78 73 74
41 25 26 38 50 55 68 107 107 76 58 53 61 55 23 34 32 21 38 24 51 66 56 48 38 55 47 29 11 3 2 1 2 7 9 9 15 26 49 68 81 74 71 69
31 42 47 69 72 69 86 107 70 63 30 43 30 40 30 22 36 34 36 36 33 27 35 26 22 17 12 7 3 2 1 1 7 16 19 28 41 41 44 39 43 62 93 116
25 38 27 38 44 38 46 61 49 -3 35 26 30 14 20 26 38 33 28 17 19 17 9 -5 -11 -16 -17 -19 -19 -7 18 38 40 50 59 66 62 58 57 58 59 63 68 64
19 22 9 8 2 1 4 10 19 10 7 15 12 3 14 6 -8 12 24 17 16 11 -1 -22 -34 -43 -38 13 24 25 30 46 56 59 60 58 63 62 62 71 82 86 96 99
10 1 -10 -0 10 17 13 17 8 18 12 9 17 9 27 25 35 33 33 26 13 8 3 -5 -22 -42 11 43 49 49 56 61 67 62 62 62 64 70 70 70 77 88 80 67
-2 -9 -8 27 -2 53 33 8 11 15 16 8 -0 -6 17 24 15 -2 5 32 22 28 38 43 50 52 46 53 67 69 74 81 82 75 71 74 80 86 92 92 97 106 88 90
-17 -17 -2 26 54 52 34 28 24 23 14 41 11 1 10 39 47 14 31 35 46 62 67 64 57 38 48 57 55 60 71 70 75 75 80 89 94 94 89 90 83 56 24 31
-25 -20 -0 12 31 52 28 14 10 -5 15 41 41 34 40 37 20 21 55 73 79 77 55 48 46 64 81 90 95 106 102 100 102 109 103 98 105 123 118 96 74 36 18 13
20 22 61 69 70 34 21 58 35 26 24 39 52 57 80 66 44 34 82 107 116 116 110 120 130 125 115 117 120 123 132 144 146 152 164 169 167 154 130 126 119 109 108 91
33 27 35 29 46 24 53 66 52 35 40 37 45 57 78 74 93 114 126 136 134 129 125 130 129 126 123 131 142 141 151 163 172 169 157 146 135 128 121 120 123 120 113 106
26 40 24 52 27 -3 17 33 29 42 48 49 61 76 89 113 111 120 122 131 129 137 127 129 126 119 128 145 160 154 167 197 181 158 136 128 132 137 139 144 130 127 104 86
30 62 66 27 20 27 44 48 63 80 72 84 86 104 120 119 129 131 135 134 143 145 144 136 131 119 108 141 164 168 169 179 171 145 137 143 153 148 141 131 126 119 112 116
114 129 100 74 21 30 35 81 93 113 118 124 132 123 118 138 131 135 139 148 141 137 139 137 130 122 123 146 148 157 163 165 149 144 148 151 156 147 127 111 115 118 123 120
250 114 165 92 53 88 40 49 126 149 126 124 149 156 162 152 150 157 158 153 140 134 134 133 132 131 122 133 131 142 146 144 150 157 157 153 154 144 132 126 105 87 76 74

GFSCGP_con_3kmhel_096.txt.gz
Helicity
80 82 44 28 55 91 97 113 110 74 44 32 27 84 123 122 128 114 83 91 52 14 -3 32 39 101 119 93 118 125 126 96 102 142 106 87 96 84 76 94 65 91 118 115
87 42 60 78 58 66 61 45 53 18 -1 23 51 77 -15 14 64 44 59 64 48 36 16 35 34 76 104 112 140 162 144 110 89 113 99 104 94 77 69 55 88 128 140 109
44 65 52 36 38 43 21 37 52 35 63 42 17 48 14 34 60 77 49 30 63 45 59 67 88 124 213 195 152 146 121 97 83 89 110 99 71 46 52 58 105 139 154 138
59 38 32 31 27 25 10 16 -1 -5 9 56 98 37 38 44 31 56 24 25 30 47 41 50 82 130 260 217 167 122 132 133 124 97 67 61 55 50 39 79 124 127 120 152
35 33 19 8 16 28 11 29 30 9 14 85 139 84 30 55 30 28 14 20 15 27 47 48 88 117 169 204 172 153 164 151 162 143 88 91 92 73 13 49 100 128 91 159
22 22 16 18 5 34 42 -35 -51 14 17 122 56 68 41 -7 -17 -16 -34 14 16 33 41 52 62 78 123 165 157 158 176 173 164 214 204 204 140 99 14 99 101 70 92 326
13 10 7 24 3 -46 -61 -48 -24 -17 -11 33 22 60 40 -22 -31 -9 -53 -45 -24 -10 17 48 101 115 135 184 228 196 233 231 184 153 153 194 198 153 92 83 137 114 135 318
27 66 21 -9 -14 -31 -39 -5 35 61 69 78 73 46 30 -13 -16 -30 -43 -40 -43 -50 3 75 113 75 135 174 226 282 166 264 257 268 197 144 199 72 83 130 33 55 42 75
68 47 -16 52 21 -20 -34 13 13 45 62 107 70 47 36 15 -9 -59 -63 -31 -28 -22 25 109 127 103 73 147 162 254 259 174 76 59 148 161 129 141 54 21 117 96 87 79
14 43 24 48 77 89 47 24 10 25 71 63 56 40 57 26 17 17 -5 -17 -10 26 109 181 184 203 238 179 139 114 104 77 62 20 17 32 32 6 21 18 29 21 27 81
42 43 39 49 83 63 80 54 68 70 71 50 72 58 44 66 61 45 31 39 36 70 98 137 153 188 159 106 70 50 36 32 24 25 23 26 30 31 34 34 40 33 36 53
71 43 63 77 61 47 104 102 93 90 78 82 77 75 12 16 47 47 61 48 50 64 94 143 140 107 71 37 21 22 17 18 20 12 5 9 15 17 33 51 55 57 60 61
41 42 43 54 54 54 64 101 105 87 76 74 58 54 30 29 41 46 43 59 92 109 91 70 76 70 49 16 0 -11 -12 -14 -17 -14 0 26 42 54 68 65 60 61 69 89
26 43 45 58 56 35 58 53 37 59 55 59 57 50 49 24 34 34 39 56 62 61 48 20 9 2 -4 -5 -7 -8 -4 -11 -9 1 4 -1 4 10 18 31 49 55 59 58
25 48 34 47 49 30 53 28 4 3 29 14 29 31 24 27 31 32 26 17 16 3 -6 -6 -9 -16 -15 -42 -33 -8 0 15 19 27 30 31 30 32 33 31 26 31 43 58
12 31 22 11 26 12 12 3 -15 -12 -4 -15 -26 -20 29 20 1 11 29 26 21 14 14 11 2 -14 -16 3 34 41 38 37 46 58 60 60 67 64 59 56 54 56 55 55
8 -8 -18 -6 -8 -4 19 28 20 14 20 24 23 12 9 26 37 37 37 35 25 19 25 31 31 45 49 46 52 57 61 66 66 60 61 63 66 71 67 59 60 65 65 68
3 -4 5 44 1 33 29 -1 10 27 31 31 13 12 23 21 26 13 20 32 36 40 69 77 77 75 68 68 70 59 56 67 70 69 73 73 65 59 50 46 46 42 25 33
8 17 20 17 33 51 9 22 19 4 -5 51 45 32 28 30 48 1 60 65 69 99 113 100 87 85 88 89 67 55 53 51 51 50 36 30 34 48 48 44 31 12 1 -4
19 20 19 3 3 23 4 14 35 19 -21 11 23 30 45 61 7 4 45 74 101 121 103 78 94 84 50 32 43 53 51 59 65 64 67 81 93 111 112 99 88 77 83 77
7 14 54 59 53 19 17 39 49 20 17 20 24 43 78 67 52 58 74 84 88 90 93 97 91 94 93 89 92 106 100 89 84 93 97 104 110 108 95 98 109 105 101 100
34 38 49 50 60 27 51 70 62 41 38 40 39 47 63 58 78 80 83 97 108 118 128 134 125 121 122 124 119 102 85 95 104 100 103 102 92 92 102 107 116 122 125 119
59 86 91 118 85 68 63 77 85 90 77 69 75 78 88 105 100 117 125 139 142 150 144 136 133 127 123 121 118 91 85 107 105 108 102 93 84 88 100 116 123 138 129 139
62 101 120 98 46 61 78 77 89 111 88 84 89 107 128 121 134 145 161 164 160 153 145 142 134 116 101 108 98 85 99 112 115 110 88 84 92 93 110 125 137 152 148 143
133 172 144 125 73 64 64 98 98 131 127 136 138 129 127 152 150 161 158 156 153 148 143 139 126 109 94 100 99 108 119 125 113 102 99 103 115 121 127 131 141 147 139 126
203 164 230 154 70 95 71 67 98 145 158 150 176 170 163 158 160 169 159 158 158 149 144 135 130 123 111 114 112 124 126 121 116 114 112 117 126 137 141 143 133 85 70 66

GFSCGP_con_3kmhel_102.txt.gz
Helicity
119 108 117 92 93 85 75 79 83 66 49 48 58 45 64 50 70 74 97 96 62 60 63 75 81 97 103 94 79 86 139 234 181 184 183 185 176 144 109 93 70 89 91 83
121 135 77 67 67 74 68 67 57 45 31 23 56 41 41 93 101 111 81 73 65 80 83 64 68 75 94 112 108 104 136 210 149 130 159 183 164 127 110 94 96 88 79 82
121 92 43 63 54 45 46 46 52 45 36 6 3 23 89 93 71 63 51 50 53 59 72 62 57 47 70 113 178 173 204 206 205 189 154 144 120 129 96 89 93 76 64 62
82 44 38 37 34 22 48 12 19 27 17 39 72 52 43 91 72 59 55 42 43 46 54 42 63 40 50 78 131 185 146 186 158 161 143 120 102 68 58 51 66 67 43 42
38 26 21 13 17 12 40 12 3 13 28 32 57 28 38 53 92 74 35 44 43 33 18 12 18 12 38 46 48 73 97 119 136 129 132 118 56 31 92 160 153 131 79 81
27 16 10 13 0 -10 10 17 -4 27 33 14 30 30 18 63 44 5 11 50 45 24 28 35 51 61 22 53 63 72 88 103 91 76 102 154 213 228 236 197 163 140 76 50
10 3 1 -6 -12 22 11 -3 24 27 27 13 119 47 -58 44 15 -24 -53 -45 -49 -25 -35 -22 37 72 112 118 122 131 158 195 176 140 168 212 220 296 260 214 171 145 156 107
40 38 -15 11 -1 8 4 7 5 -12 10 11 27 -37 21 23 -3 43 -35 -47 -60 -80 -69 -54 45 46 32 96 159 157 178 254 255 258 204 189 7 121 62 127 105 161 103 125
-4 -9 24 24 16 -7 -15 7 6 25 33 10 15 42 78 27 -5 -20 -36 -20 -46 -51 -53 4 57 61 75 129 241 285 202 341 331 212 163 185 214 192 151 70 2 27 24 79
51 33 30 19 31 37 11 1 23 40 16 15 46 20 61 40 39 22 24 5 -10 0 -6 16 32 4 25 43 64 175 120 147 156 142 174 123 86 123 154 70 38 40 32 39
52 44 30 38 50 70 79 56 37 40 49 51 44 50 101 115 124 99 65 49 40 19 11 31 56 79 67 61 53 65 -9 -28 -26 -20 -19 -11 10 20 18 29 51 50 52 70
30 40 77 79 55 60 78 76 50 60 56 71 74 68 53 43 49 66 57 28 15 32 64 51 36 41 35 38 23 -26 -35 -13 -5 -2 3 13 26 37 41 43 46 46 51 46
37 46 59 38 36 33 61 62 44 39 26 60 46 30 57 46 16 3 13 15 36 25 19 29 34 35 30 27 21 21 18 19 22 19 24 27 27 26 28 35 36 33 27 30
17 36 45 18 -4 3 15 36 41 34 22 16 46 26 73 64 44 31 31 37 31 25 26 27 28 28 26 20 0 4 13 15 19 21 27 31 32 33 33 30 30 32 34 38
23 29 30 46 36 25 19 31 44 70 42 34 23 61 79 98 94 72 57 36 27 34 36 37 33 32 34 41 45 38 27 18 12 17 22 23 14 11 10 12 12 8 9 13
14 10 3 4 11 68 103 95 84 81 73 84 76 60 48 75 90 82 72 66 55 52 55 55 54 53 53 54 55 57 50 46 39 42 39 30 29 38 51 58 56 51 51 48
21 24 14 53 17 26 77 104 153 102 81 89 92 51 93 115 115 93 82 84 79 70 69 76 77 78 76 69 66 63 62 54 46 47 54 59 56 53 49 41 33 26 19 9
52 37 43 70 33 49 32 31 39 106 66 114 75 71 78 67 64 60 72 83 92 100 106 107 103 96 86 85 82 73 60 56 59 69 73 74 69 58 49 38 27 30 39 42
65 58 60 31 58 57 29 43 83 88 19 92 113 87 74 83 79 62 88 93 75 76 84 90 106 118 115 112 104 88 87 92 94 84 67 51 40 21 13 16 30 42 54 65
80 66 80 77 68 44 34 71 70 70 43 59 67 68 101 125 72 62 103 110 100 96 116 142 156 151 139 133 116 112 112 92 68 60 56 54 57 57 60 65 68 75 75 75
83 110 159 137 119 62 106 128 95 80 94 73 59 66 111 102 61 99 104 103 104 123 151 170 158 144 140 137 135 116 97 82 83 67 56 54 62 67 67 71 77 79 63 50
134 136 136 147 142 71 130 178 110 103 72 56 65 68 81 68 86 93 93 112 128 148 162 156 152 152 152 139 115 92 86 100 86 84 80 78 73 75 76 79 75 66 59 61
98 125 140 140 139 125 122 125 102 117 94 106 100 80 69 75 78 90 97 117 137 156 163 156 143 145 132 112 92 89 117 108 96 85 76 73 83 90 85 82 79 75 80 89
106 142 225 129 76 76 121 105 102 104 101 116 99 70 67 64 73 92 114 125 129 136 126 119 113 108 115 117 123 137 134 121 106 94 99 99 89 100 92 88 86 94 96 103
173 232 198 190 88 88 89 106 65 52 49 70 124 106 73 77 89 94 100 116 144 159 162 159 156 151 142 146 145 151 131 113 109 109 98 100 101 88 83 87 90 95 90 90
264 246 261 200 87 95 112 122 81 53 51 52 73 84 83 88 90 104 123 140 165 175 170 149 130 139 160 157 163 147 119 127 119 106 109 106 87 84 84 91 87 65 68 56

GFSCGP_con_3kmhel_105.txt.gz
Helicity
124 143 119 108 121 103 99 87 72 63 74 68 51 47 45 63 77 79 101 107 126 146 116 141 110 84 80 84 138 130 97 79 86 146 189 175 182 172 146 133 124 108 94 81
149 144 109 87 84 81 79 84 81 85 72 49 49 34 29 66 138 139 123 140 143 126 113 97 91 80 65 80 120 170 170 111 101 140 209 177 133 145 155 151 134 113 93 92
126 106 58 72 98 92 76 97 103 74 64 -1 34 14 75 81 87 86 101 120 96 88 83 82 68 61 62 73 92 129 180 174 185 249 150 177 212 228 209 133 110 76 60 46
92 56 62 72 76 71 76 76 66 56 59 59 72 77 50 96 56 65 60 94 63 57 69 78 51 37 38 54 50 71 74 129 178 234 194 222 164 156 171 135 122 118 223 184
65 46 46 55 64 32 72 44 31 24 17 35 87 59 44 61 66 107 112 97 93 59 54 34 47 49 38 74 53 33 46 64 73 99 136 145 179 187 172 141 134 139 136 155
41 52 42 47 29 9 35 11 2 13 32 33 50 27 31 95 128 75 110 139 67 49 53 55 46 20 29 79 90 54 16 26 64 55 69 86 97 65 105 146 133 125 154 186
33 21 24 21 17 18 14 15 8 11 28 43 60 58 24 126 132 138 99 67 55 5 -78 -78 -55 -32 -16 -12 101 95 96 107 132 139 66 62 69 119 104 106 179 225 198 237
21 20 -2 14 9 15 13 22 36 21 37 41 75 38 94 180 101 110 74 52 73 72 -57 -75 -47 -36 -21 44 60 108 158 183 228 259 254 145 159 97 198 122 150 154 161 189
-5 -1 -5 -7 10 5 23 12 10 -8 -23 -17 15 68 122 139 58 51 35 35 -17 -42 -67 -47 -17 11 14 56 123 183 186 217 223 124 216 204 198 266 170 250 84 30 20 22
2 -7 8 2 23 11 12 7 -6 -6 -19 -25 17 60 65 82 103 79 68 58 28 16 -2 -20 -8 14 24 27 78 120 139 168 79 55 205 157 100 105 138 92 66 35 40 43
39 36 7 16 34 22 17 12 23 29 23 7 5 17 28 37 63 66 71 69 58 34 3 9 47 33 15 -2 14 29 36 2 -3 -4 -19 -10 15 17 20 23 36 52 55 58
21 37 52 42 16 34 42 40 33 36 24 46 42 30 78 50 54 27 21 11 -16 -21 16 28 5 15 29 32 41 39 35 33 27 -9 1 4 12 14 20 30 37 38 38 41
12 38 48 33 13 5 33 29 26 10 10 38 1 39 75 65 68 32 6 0 -8 8 28 44 40 37 33 35 36 35 31 28 24 20 15 20 28 30 36 39 39 37 36 35
10 19 26 17 -1 -7 8 13 29 30 13 0 64 29 84 77 82 73 46 31 38 44 41 35 35 39 47 44 32 27 30 27 25 23 28 35 38 39 39 40 40 43 46 47
-11 4 -3 21 29 35 65 61 77 110 93 55 37 22 30 82 108 110 90 70 55 46 44 50 51 49 54 54 54 57 58 52 47 43 38 35 28 27 24 20 20 20 21 23
-27 5 -16 14 19 41 96 110 125 136 145 119 87 63 43 64 131 135 122 105 91 80 77 82 81 74 70 69 66 67 53 45 32 25 31 34 33 36 43 52 59 63 67 73
25 32 16 70 26 37 77 109 133 118 115 111 95 47 69 80 122 132 121 121 99 79 70 71 72 78 82 97 91 81 75 64 57 59 59 61 64 64 64 57 43 29 22 16
74 60 56 80 35 56 41 30 46 73 91 106 82 85 75 70 70 74 81 80 72 65 66 79 92 108 132 126 106 96 82 71 62 65 77 86 84 80 75 68 57 50 46 35
98 89 83 58 76 99 17 75 93 105 33 86 85 57 83 69 52 40 58 58 51 69 86 102 122 143 157 119 111 97 95 97 104 116 114 111 99 76 51 38 38 39 43 45
98 97 125 140 102 69 79 110 96 70 50 77 62 53 83 142 86 77 109 76 92 115 110 136 159 160 165 180 163 134 131 125 115 116 102 86 77 75 73 70 73 74 73 74
101 125 185 142 152 69 123 138 103 81 96 93 35 52 95 118 67 104 97 109 111 130 164 195 181 181 189 164 128 123 125 122 135 118 106 95 83 77 72 78 85 87 86 83
131 99 130 112 135 73 169 175 123 136 140 95 35 63 62 60 77 69 78 85 109 142 153 154 179 178 157 146 140 137 119 129 117 105 84 78 84 103 104 88 83 78 68 60
77 100 129 124 112 176 141 120 117 170 135 75 57 81 85 64 55 78 95 113 129 144 144 157 178 177 150 140 137 129 137 138 118 105 94 95 103 97 105 96 94 86 78 85
123 139 213 161 85 66 128 101 99 128 98 75 95 105 126 101 86 85 106 131 145 145 156 158 159 151 149 132 129 114 121 125 122 111 107 108 104 109 99 106 91 91 93 98
150 230 110 120 86 8 44 97 99 71 103 98 68 77 107 139 120 104 117 128 131 148 161 154 156 156 138 131 117 128 141 143 130 117 107 107 121 115 104 97 94 100 85 91
258 196 177 131 78 44 95 147 131 125 135 118 91 84 89 101 97 117 123 130 147 157 169 174 165 154 137 122 130 146 162 152 130 118 117 126 122 112 101 98 91 67 65 64

GFSCGP_con_3kmhel_108.txt.gz
Helicity
120 162 163 125 146 116 141 125 79 87 92 51 33 36 59 68 71 154 162 159 177 152 143 135 101 93 97 88 75 85 96 105 145 122 123 117 142 178 161 138 135 158 171 172
118 170 103 92 94 97 109 103 107 104 81 54 66 56 75 63 169 246 176 154 129 136 123 96 73 81 89 59 56 59 75 75 123 125 148 139 129 139 146 149 166 178 190 199
129 121 102 111 167 148 123 152 153 112 90 41 54 21 82 94 109 93 69 142 151 126 102 74 57 75 79 59 59 44 37 42 85 113 94 83 99 110 158 183 166 190 261 239
96 79 94 111 133 119 139 114 105 79 76 53 73 45 85 109 25 78 89 154 139 99 98 63 64 67 58 66 85 69 27 17 18 64 57 80 60 98 181 197 227 218 220 181
72 72 84 95 90 73 89 84 62 59 37 40 63 84 37 107 35 142 181 163 84 26 65 60 60 62 77 77 98 113 65 30 54 45 62 51 59 106 107 129 126 147 145 186
54 78 67 89 58 44 53 41 22 11 21 54 27 49 16 103 127 163 133 132 54 37 36 52 40 33 42 84 110 113 96 81 71 75 71 47 100 89 107 114 91 123 104 112
27 14 29 26 16 38 37 28 28 47 38 24 51 58 43 123 172 140 87 72 51 49 39 48 14 -53 31 66 94 59 103 69 99 142 140 165 110 118 137 185 91 85 148 152
4 11 -1 19 15 18 25 31 43 24 37 39 82 31 27 121 160 175 91 45 46 37 38 50 51 38 25 25 69 61 65 74 80 80 139 135 154 131 112 119 118 89 120 276
-4 12 31 -1 16 18 14 16 33 16 3 4 -16 25 77 125 167 120 103 86 90 83 75 40 4 19 24 43 70 108 106 82 110 176 190 128 56 79 93 95 99 148 241 116
24 7 -9 24 11 5 10 -1 -4 -10 -18 -7 23 59 77 63 86 92 89 82 74 66 61 13 6 -3 12 5 24 28 -7 3 14 4 19 73 45 32 45 61 95 98 50 16
37 29 7 -3 20 23 7 5 3 4 6 6 3 2 32 18 64 46 43 34 14 12 -29 -42 -5 22 23 34 15 22 18 10 14 15 15 13 9 18 31 35 23 18 23 26
4 30 33 34 26 11 29 16 4 -4 4 27 3 21 67 38 45 47 21 -2 -13 -30 -38 -21 23 39 45 45 44 45 35 40 33 26 30 25 16 12 19 22 24 26 28 29
17 30 31 15 -5 -19 1 5 9 -13 -29 23 22 35 85 72 70 64 45 31 14 6 9 37 53 63 65 74 69 66 61 51 43 31 22 23 25 27 30 32 31 28 26 27
1 17 20 23 2 -13 8 1 49 68 57 40 144 91 130 107 97 95 81 85 69 45 35 65 61 86 97 110 87 68 75 59 51 49 53 65 59 56 52 50 50 48 45 45
-8 16 6 14 41 66 94 119 161 246 205 98 61 29 26 110 180 171 121 103 91 71 71 94 108 101 117 145 114 102 100 92 83 69 71 71 58 51 47 42 43 43 45 46
-9 43 2 16 58 63 75 97 146 183 220 202 141 68 49 69 183 221 184 143 102 74 81 108 128 131 129 164 152 151 117 109 97 74 62 58 57 63 66 65 59 64 69 73
24 22 -0 59 4 -16 37 124 194 161 178 214 174 164 1 64 103 177 179 151 121 114 122 124 147 164 179 177 193 150 129 112 75 68 67 77 91 81 79 78 77 71 66 61
41 37 37 61 17 53 60 24 34 104 106 115 105 69 75 65 80 96 126 155 154 147 135 134 167 183 200 240 200 169 136 112 96 88 101 113 107 101 99 98 96 89 79 73
100 119 100 66 92 97 -1 47 67 80 23 85 123 81 75 130 136 35 32 95 106 131 158 186 217 231 288 252 193 160 135 109 104 101 117 112 116 122 123 113 97 85 87 81
68 85 112 96 86 50 24 56 55 64 29 53 85 79 68 243 144 84 48 96 105 150 196 261 297 311 280 220 191 149 127 135 120 142 126 124 125 130 114 98 91 101 98 91
89 105 179 135 128 72 91 88 92 111 106 134 152 107 77 189 163 130 142 145 141 129 145 200 227 207 197 203 175 144 144 131 142 129 126 127 123 114 95 99 106 108 103 103
144 91 105 93 85 21 137 171 171 165 194 215 199 114 77 135 178 142 130 137 154 164 173 187 183 193 215 187 152 142 132 126 133 128 126 119 111 114 121 115 114 109 105 99
74 95 150 146 152 152 163 169 167 242 254 247 222 136 119 128 151 174 163 135 132 150 153 154 174 190 175 161 152 149 143 152 133 129 122 127 123 120 115 118 111 119 110 107
145 100 208 174 156 66 214 211 197 222 237 229 238 190 167 151 132 175 192 167 159 163 156 167 198 202 173 149 140 124 145 144 134 120 125 133 132 113 119 124 121 123 121 115
270 272 242 160 134 26 -20 37 131 148 226 185 171 122 130 123 107 153 190 178 170 172 172 180 188 181 171 173 148 141 139 128 128 129 141 142 140 136 126 120 121 120 113 107
457 361 307 175 164 127 103 132 159 150 136 110 122 104 78 90 103 136 180 179 179 186 204 198 188 195 202 186 159 138 135 146 144 136 153 151 140 137 130 122 103 90 61 59

GFSCGP_con_3kmhel_111.txt.gz
Helicity
150 180 180 129 108 106 125 124 105 100 50 38 44 33 62 84 88 161 210 213 156 115 82 82 72 68 77 74 94 99 68 64 32 65 92 115 101 127 103 119 106 89 135 78
181 180 117 103 125 120 137 125 123 80 62 40 56 57 96 69 99 160 190 171 163 133 97 73 56 71 85 99 97 81 64 46 43 50 81 91 104 95 129 91 76 107 172 292
155 119 82 114 154 142 135 133 103 88 101 92 72 24 64 95 87 105 149 193 168 141 109 42 57 48 70 87 90 80 97 69 53 38 40 68 40 13 51 46 77 123 161 216
174 112 109 145 175 151 136 138 102 86 62 35 43 6 46 76 70 80 178 181 146 125 60 28 48 47 62 73 83 90 87 80 61 30 -1 38 9 19 54 95 177 138 116 148
91 98 118 135 112 109 86 86 85 63 37 19 47 68 34 58 60 158 154 153 136 99 46 30 32 37 53 48 61 78 90 77 86 54 50 36 51 45 58 71 64 34 106 59
69 64 78 86 77 89 77 66 30 -1 14 37 31 65 17 39 62 194 191 165 114 82 46 45 46 38 33 37 44 51 98 67 65 46 81 70 65 78 72 75 82 122 124 124
60 52 47 52 31 44 36 48 32 41 48 27 32 53 -3 43 93 141 135 91 54 53 7 14 18 36 12 19 26 42 71 58 45 59 80 96 105 80 53 55 47 91 123 95
37 53 6 12 4 -4 20 25 40 23 41 2 57 12 3 40 86 110 86 48 40 42 19 18 25 20 20 15 17 26 42 79 106 104 100 73 77 89 99 109 110 129 105 101
-2 13 39 13 16 18 11 11 30 16 -3 10 -1 7 17 33 24 92 80 59 48 49 39 28 2 -0 2 -2 13 20 38 53 52 37 39 57 66 57 58 70 70 54 62 100
34 3 33 24 22 7 7 21 11 13 5 -14 9 6 21 11 37 79 79 59 45 12 4 2 -76 -69 -12 17 33 34 11 14 27 32 31 19 9 10 11 17 17 25 18 26
40 20 -10 13 2 34 5 9 -10 -11 -14 -8 1 10 26 27 36 33 36 34 10 -28 -31 -68 -64 -20 11 43 38 39 40 37 29 24 27 22 18 16 21 36 36 35 34 31
31 20 34 53 28 39 29 -1 -8 -11 -3 -0 -14 12 51 60 29 28 28 28 21 -15 -39 -62 -45 -2 25 49 45 47 41 41 33 32 33 35 35 36 38 37 37 37 36 37
28 42 30 29 14 14 18 30 31 9 1 37 64 19 68 48 30 34 46 42 49 4 -23 -11 4 22 44 53 75 75 77 74 57 50 48 51 49 43 38 37 35 36 36 36
-4 26 31 50 9 -2 34 43 63 136 107 104 236 111 90 63 50 46 54 84 87 67 40 18 29 49 59 106 123 106 94 91 85 71 60 55 47 43 40 41 44 45 42 39
-8 31 35 50 55 63 93 101 114 241 248 137 73 91 65 28 65 132 139 129 155 116 92 75 75 69 91 144 148 137 123 102 89 76 66 55 50 52 52 50 46 47 53 59
-12 36 -5 28 10 33 59 99 147 172 203 235 190 85 80 77 79 138 186 198 189 163 128 102 94 106 166 194 183 152 131 113 109 90 85 86 91 86 74 71 74 83 89 83
6 9 -15 47 6 -5 44 87 171 163 224 316 249 278 159 47 56 112 161 210 192 171 144 120 124 165 196 208 208 184 160 154 122 103 88 87 91 82 82 86 90 90 87 92
69 53 42 73 1 44 56 34 68 165 110 238 178 143 181 123 106 128 174 250 203 161 138 112 102 159 192 224 242 227 193 161 134 112 101 105 98 87 92 108 119 115 112 109
103 115 81 50 87 69 -9 48 70 118 32 173 210 119 106 85 144 159 182 176 182 189 171 135 153 181 233 278 266 214 183 160 134 110 114 106 105 108 118 119 119 117 107 108
70 106 123 114 65 42 51 72 58 82 80 76 108 78 118 195 172 158 129 55 114 145 147 173 217 273 307 261 245 226 183 149 124 114 101 101 106 111 119 133 128 130 125 104
80 95 175 116 92 49 50 88 111 91 78 86 112 142 179 151 135 92 94 137 149 167 183 214 266 287 268 261 238 198 167 125 106 101 93 100 107 117 123 131 140 121 113 112
111 94 97 106 103 -13 86 167 132 94 112 142 180 187 181 116 79 123 119 129 151 176 177 178 215 220 219 207 192 165 138 112 109 104 111 106 121 135 147 136 124 129 131 116
46 82 87 124 91 88 137 128 100 149 144 141 154 123 121 107 87 95 112 123 129 144 137 143 182 194 174 158 158 160 120 120 109 116 110 117 124 136 150 143 130 139 131 115
151 192 148 132 152 89 145 191 205 206 195 146 137 115 125 113 109 102 97 117 134 147 137 150 172 162 146 147 157 139 131 122 131 124 121 121 125 130 158 144 145 133 126 116
332 344 325 255 167 114 100 99 105 101 137 135 124 134 104 112 107 117 113 143 164 175 158 158 161 151 136 152 142 131 132 134 142 128 118 119 136 149 143 140 132 128 113 116
499 343 269 273 172 181 139 76 55 49 83 89 99 90 101 115 98 105 94 127 185 193 191 184 159 165 166 175 163 154 147 143 142 125 120 125 136 156 147 137 125 98 89 73

GFSCGP_con_3kmhel_117.txt.gz
Helicity
209 190 202 179 147 97 108 126 126 118 84 84 62 40 36 24 46 62 77 130 183 163 140 105 80 53 43 46 58 58 79 71 58 90 94 108 62 62 103 138 169 149 122 93
231 216 181 141 132 125 163 144 147 113 80 84 86 56 61 52 69 85 141 169 178 183 140 115 79 45 29 38 39 57 62 66 69 93 101 47 43 37 76 74 71 112 128 97
186 177 150 136 146 158 190 127 121 103 101 78 94 83 101 104 120 147 141 148 167 145 127 102 81 45 53 55 40 49 62 62 92 99 100 52 68 62 76 77 72 83 116 122
161 167 129 145 153 127 153 117 115 122 125 101 103 64 75 105 119 114 121 120 126 122 124 114 84 85 63 41 40 51 81 106 101 102 105 83 64 79 53 65 57 55 85 121
177 139 138 152 147 112 108 93 118 114 113 110 106 93 27 92 77 46 59 87 107 121 108 82 70 59 32 41 61 79 79 94 81 68 78 88 59 60 67 61 63 46 82 56
144 136 123 111 117 109 78 114 137 107 95 58 70 89 48 63 57 55 73 114 128 118 107 82 83 40 34 52 63 62 72 60 37 37 58 57 54 58 75 80 70 67 46 55
220 171 123 93 149 111 106 116 43 3 48 29 83 87 34 42 35 46 46 88 105 109 108 88 65 57 30 48 55 57 40 29 -8 -7 1 9 25 32 46 53 50 62 64 64
100 122 84 69 80 67 91 81 41 21 54 65 67 59 45 50 53 63 56 63 80 75 71 70 50 18 5 8 28 37 33 21 13 13 6 15 38 36 38 42 42 32 23 23
54 87 88 55 62 59 44 50 35 50 32 55 53 5 -1 29 35 43 22 34 51 64 75 53 15 -22 -21 -3 12 25 17 13 10 14 13 31 44 57 50 53 48 43 41 41
26 41 41 47 46 37 26 24 39 53 54 35 3 -10 -2 32 2 -11 -13 45 51 50 46 32 1 -14 -16 -7 19 32 28 25 21 19 16 28 35 48 59 72 78 69 60 56
33 31 24 26 10 -3 21 14 29 29 24 -23 -48 -22 -23 13 54 43 14 26 37 48 49 42 15 5 4 22 37 37 34 34 30 23 26 39 50 63 66 65 56 52 48 48
41 33 9 12 33 11 -18 1 23 21 -9 -23 -44 -2 40 50 58 46 -7 24 46 55 56 54 43 38 29 24 23 23 33 38 35 40 50 60 70 69 72 71 64 63 63 61
28 37 18 30 23 7 15 13 -2 -27 -38 19 27 13 14 -17 -13 4 -15 2 32 47 68 75 71 48 36 32 32 39 43 46 59 75 80 86 80 81 76 75 73 64 61 68
3 26 33 35 -4 -33 -3 -8 53 72 55 66 216 121 58 44 30 31 48 56 60 63 78 88 64 49 47 47 49 57 49 75 80 90 89 92 90 92 91 89 81 80 85 95
-4 18 14 29 54 58 72 55 85 227 239 181 83 165 165 92 79 104 62 49 76 88 106 119 103 64 44 30 22 51 62 99 115 121 121 106 114 116 116 107 92 87 95 99
24 44 19 57 37 78 136 123 148 215 216 270 272 254 170 158 43 51 93 38 41 94 112 139 145 125 98 70 54 72 97 138 177 151 123 118 127 132 125 108 99 103 104 113
48 43 25 48 -3 23 81 84 162 171 211 284 230 371 131 123 90 50 -5 12 47 75 89 155 183 184 156 137 129 141 149 194 185 150 122 130 140 140 121 104 103 107 119 135
51 43 28 54 10 7 9 24 37 89 43 172 219 246 230 161 66 23 37 73 61 85 113 158 182 178 164 151 161 152 199 229 218 169 149 155 160 142 123 114 110 113 126 131
29 20 28 3 19 31 -29 -34 32 46 -28 48 138 99 33 53 67 42 114 97 72 80 107 130 158 178 157 164 153 193 206 248 249 179 164 168 161 148 128 115 111 123 140 154
15 -0 5 -11 -19 -52 -56 28 31 25 3 102 37 -45 -11 31 75 95 115 87 51 12 54 100 123 131 131 122 206 244 245 277 227 192 184 189 179 156 132 118 124 136 154 155
-35 -36 28 7 -36 -28 -26 68 16 17 57 36 1 -8 12 55 96 88 98 82 52 23 38 80 113 127 116 168 237 253 298 250 196 213 213 200 170 141 125 134 146 146 152 165
64 27 -43 34 15 -72 60 98 53 82 113 81 58 74 95 115 108 98 105 111 80 62 88 110 127 128 131 158 235 256 229 210 217 221 209 179 154 136 142 141 139 147 161 164
59 36 96 120 42 88 55 99 97 122 84 93 105 62 129 122 137 113 126 121 98 100 98 129 144 161 178 198 219 231 187 229 244 237 204 169 152 139 136 148 146 156 171 171
74 141 175 134 39 63 99 126 99 185 123 91 128 129 124 120 131 116 127 114 94 98 118 156 178 168 180 198 207 186 215 232 236 214 195 176 156 139 145 148 152 161 169 167
133 173 181 187 63 4 61 76 -18 -27 25 68 112 174 166 134 99 111 123 94 87 89 111 173 191 179 164 197 189 191 203 228 221 198 184 172 159 153 155 145 149 161 158 165
144 81 129 98 56 -18 4 74 34 -9 19 64 138 157 140 164 115 129 99 85 95 98 120 157 180 181 160 180 170 173 196 209 219 202 175 165 166 170 164 157 151 130 114 122

GFSCGP_con_3kmhel_120.txt.gz
Helicity
247 252 268 234 148 110 114 121 127 104 80 67 38 20 30 28 50 42 54 92 117 146 159 144 122 96 67 43 40 51 55 60 69 84 77 81 89 79 78 81 99 92 108 123
254 262 232 173 131 107 141 140 147 112 79 67 60 36 50 46 58 94 91 117 165 230 179 133 105 88 67 52 57 52 52 63 63 42 27 49 70 49 67 71 93 112 105 112
159 188 177 128 161 141 165 115 108 97 96 74 70 50 82 96 99 114 114 134 189 186 146 122 106 100 76 59 63 57 60 75 70 65 83 83 71 76 86 100 92 98 96 104
154 194 127 137 138 130 139 103 94 112 113 101 107 76 84 103 96 122 153 141 129 121 133 130 107 78 60 69 54 55 70 78 81 103 120 107 104 96 80 70 54 84 103 112
192 181 138 141 128 108 96 92 102 100 102 102 97 95 37 107 86 94 86 58 68 100 112 96 82 68 85 71 58 65 78 91 100 98 76 76 62 38 47 46 70 97 88 83
169 168 134 109 114 98 72 107 121 100 93 98 108 115 28 58 69 94 58 50 77 86 80 82 77 82 84 67 68 78 83 76 67 47 31 30 38 26 24 33 36 42 42 60
216 186 141 109 121 113 108 127 136 106 115 35 85 80 53 52 47 57 50 34 77 91 89 74 67 67 71 46 42 36 45 51 50 44 37 28 19 20 26 24 29 37 33 36
174 201 142 106 107 97 108 90 83 -5 -23 -8 87 32 31 44 61 55 56 41 57 77 79 74 57 55 25 10 18 31 45 50 45 39 27 23 23 21 31 37 38 41 38 33
102 160 114 79 77 78 79 88 84 58 54 40 57 37 15 17 18 41 39 45 38 51 66 61 50 28 3 7 20 44 51 43 33 34 34 31 25 32 38 35 39 43 44 45
52 60 84 70 48 73 61 36 67 63 65 41 46 39 19 40 58 32 -7 -3 19 46 57 54 43 11 0 8 26 49 48 40 42 44 42 42 36 42 43 49 57 57 52 47
31 27 50 37 22 11 32 26 48 50 58 23 -15 -8 -33 -15 38 36 18 -4 11 41 53 54 42 22 16 25 44 50 54 55 45 47 50 57 56 59 61 67 69 67 58 50
41 27 26 21 40 22 23 21 42 30 0 32 5 25 -7 -4 38 38 18 -20 2 40 47 61 62 65 53 44 61 62 56 54 59 60 65 63 72 75 76 75 70 71 71 66
32 52 49 58 45 39 25 6 -7 -26 -29 2 -19 -3 18 -12 -27 -17 -18 8 -10 18 59 49 80 91 67 47 52 63 66 73 81 86 85 79 79 82 76 80 86 80 79 77
15 34 32 16 3 -21 -6 -20 11 23 15 45 186 142 5 -14 -15 -20 -3 19 19 24 72 91 62 94 109 100 96 85 70 89 90 103 104 98 98 98 98 102 93 83 82 90
-2 13 -3 11 28 19 26 25 74 188 215 141 115 178 208 170 117 82 4 -21 20 27 81 127 141 156 161 155 131 116 97 115 133 132 121 105 103 121 129 126 108 100 94 97
16 24 -3 27 29 46 51 74 136 162 153 220 193 174 151 108 -16 0 17 9 -3 32 71 117 172 185 196 200 188 180 142 146 208 182 144 141 148 154 141 128 117 106 98 97
23 18 6 43 13 18 38 57 123 89 129 180 176 236 50 102 93 68 41 10 39 53 83 113 164 199 214 215 211 223 186 212 233 203 177 182 172 163 144 128 118 99 91 101
36 37 34 56 21 1 -14 -5 17 68 38 118 61 84 53 45 34 26 104 105 103 130 114 108 122 164 200 205 226 205 249 258 241 214 211 216 205 196 178 163 131 121 115 116
26 24 21 -2 17 3 -1 6 35 46 19 59 64 10 24 16 22 46 14 60 89 112 108 88 92 130 167 201 207 235 246 254 264 234 243 239 230 205 182 153 136 127 127 126
24 3 -24 -14 -27 -58 5 25 41 37 34 69 73 11 -23 -11 -71 1 -24 80 96 96 89 62 56 90 118 123 186 224 200 240 238 227 257 274 254 215 184 148 133 126 133 125
14 6 -9 -37 -35 -40 21 45 31 42 41 78 19 11 22 37 99 106 90 95 100 93 72 62 59 65 84 113 165 178 199 207 193 286 302 286 240 206 176 157 132 130 129 138
45 45 41 48 22 8 39 15 3 34 47 1 30 54 51 76 62 121 94 98 78 88 94 93 79 68 75 102 139 153 172 188 257 303 312 270 240 211 186 150 131 126 140 138
37 50 55 86 53 76 33 82 75 73 31 12 3 8 76 76 77 111 107 104 104 93 97 105 97 74 90 107 135 158 159 205 253 285 273 253 228 199 181 163 144 143 139 146
42 92 91 79 44 50 -20 34 48 28 28 -14 14 28 50 48 105 124 115 108 107 109 104 103 92 95 100 134 140 146 172 206 245 244 232 227 204 183 159 151 149 146 143 148
95 144 124 115 46 58 106 26 -5 14 25 6 28 42 43 93 114 136 129 104 99 90 83 94 107 128 122 155 167 175 191 227 225 211 208 194 181 169 155 140 138 147 137 149
90 105 130 71 78 35 65 64 29 16 44 57 51 59 90 113 120 132 105 104 101 87 80 93 104 107 114 158 168 189 203 221 231 222 212 194 189 179 160 154 139 113 90 84

GFSCGP_con_3kmhel_123.txt.gz
Helicity
248 266 297 269 222 152 162 142 148 115 90 66 24 -7 8 17 44 23 48 75 102 84 116 136 134 122 104 82 62 55 61 77 74 67 71 76 94 104 94 90 96 78 74 80
279 331 294 192 181 171 196 152 150 86 70 61 39 3 31 28 45 89 72 75 106 162 179 162 135 131 111 89 75 60 59 67 56 55 49 55 64 67 80 78 75 79 78 87
220 272 243 182 216 210 238 128 105 81 76 48 42 20 54 72 81 87 91 93 129 180 193 154 131 122 117 89 66 51 48 53 59 61 59 50 39 57 68 77 72 70 85 87
185 238 179 178 174 142 159 122 79 81 81 91 81 82 69 75 57 88 112 126 113 126 133 127 123 104 93 71 56 51 54 62 78 82 70 81 69 74 65 56 55 66 74 77
205 173 157 160 154 120 85 80 85 79 79 76 89 76 38 70 66 76 109 94 74 74 99 95 90 90 90 77 64 52 54 68 68 57 49 58 73 43 30 30 25 42 59 55
162 167 131 108 131 90 42 92 103 86 79 99 83 82 32 41 56 104 83 44 50 63 68 81 86 99 76 73 56 44 46 43 32 31 46 60 55 41 35 33 32 31 26 32
202 184 146 113 114 108 90 108 141 125 116 57 63 62 34 55 39 49 67 38 36 63 86 86 87 81 65 63 47 33 23 18 32 44 52 51 48 43 44 38 33 42 40 33
147 192 136 120 98 77 97 84 89 55 59 43 58 -6 29 20 41 21 26 35 33 52 72 80 79 77 71 46 29 27 31 34 41 42 44 41 42 44 46 41 38 40 37 29
137 171 120 105 90 92 89 104 65 69 60 23 40 29 20 28 3 24 22 36 26 37 58 74 75 72 54 29 26 47 51 45 42 35 42 40 42 50 52 51 48 45 35 33
106 138 128 93 74 100 86 46 81 92 53 61 49 47 34 34 27 12 22 14 3 19 43 53 51 55 45 35 47 67 67 58 54 54 52 51 54 58 57 53 57 54 49 44
57 81 97 80 73 55 88 79 89 60 51 58 56 34 2 -0 12 34 39 27 10 18 42 49 56 66 63 72 83 82 75 67 61 64 61 63 65 68 64 61 59 54 51 55
51 45 43 55 58 42 39 35 45 58 33 46 34 14 -8 -42 -29 31 37 35 25 22 18 52 78 92 106 110 107 96 84 82 75 78 86 80 76 82 75 68 60 59 59 58
32 57 56 68 53 49 34 38 50 66 52 44 39 -16 26 -11 -7 5 -25 -8 32 59 50 70 108 135 128 129 132 118 101 80 86 99 97 86 89 94 82 76 69 69 68 71
24 30 38 40 33 21 14 23 60 69 37 23 85 60 8 -14 -21 -21 -27 -1 3 -0 26 77 88 109 140 149 154 154 137 138 137 144 132 118 120 120 112 105 104 98 92 84
15 19 9 19 23 15 10 6 40 117 141 86 22 65 122 90 81 97 -11 -19 -27 -27 -16 58 117 124 147 178 180 173 157 165 192 181 157 127 144 144 127 118 107 103 95 80
20 17 -1 18 9 18 39 51 97 126 105 135 121 130 103 47 -3 22 74 56 21 -22 -21 96 109 116 145 191 222 231 217 206 254 235 185 168 185 175 162 150 144 137 119 101
23 9 9 42 17 9 24 61 115 95 87 97 85 115 40 48 48 47 52 43 43 70 86 98 123 136 142 166 208 245 255 256 299 281 232 221 227 219 193 175 160 140 123 112
15 11 12 28 21 7 11 -14 5 59 -1 80 21 49 51 45 43 45 74 25 35 75 99 137 163 145 135 140 162 172 191 259 274 292 286 273 277 251 247 223 173 159 146 116
18 19 22 -0 22 16 26 25 26 33 66 89 79 29 9 -4 20 18 -18 37 51 91 122 122 108 94 90 102 119 156 187 200 230 241 267 271 289 284 275 228 184 169 152 125
28 35 8 5 -7 -7 50 33 10 31 82 81 29 -2 -19 -17 -24 58 23 76 57 79 100 86 84 95 92 89 113 148 145 185 180 188 217 262 300 312 275 230 207 190 165 122
49 52 -2 -5 -24 -11 32 40 46 66 57 45 -2 -8 16 49 119 100 15 38 99 80 66 88 101 98 94 96 103 114 146 164 148 198 248 266 295 318 277 261 237 193 158 134
60 75 44 59 40 23 83 46 28 53 38 18 27 41 -9 33 52 68 39 54 57 57 64 89 89 80 94 93 94 97 118 151 193 229 248 280 327 328 300 251 216 183 164 138
32 38 41 62 48 80 57 30 61 43 19 4 35 22 27 39 44 37 71 88 93 89 84 87 77 67 74 83 98 98 120 138 174 214 243 288 309 290 262 235 204 191 165 142
36 95 72 66 74 81 40 53 84 6 5 25 28 25 37 37 47 63 75 98 102 97 91 86 73 63 55 100 112 126 132 150 184 213 226 242 250 242 225 202 181 165 150 132
82 104 101 89 64 70 104 103 -15 7 26 35 55 51 45 46 38 50 42 57 64 77 80 67 63 66 73 91 95 112 133 165 178 190 202 216 215 213 200 175 171 156 134 137
112 109 131 96 55 40 85 63 52 59 74 86 72 72 62 42 28 35 37 63 72 61 61 60 69 74 71 76 81 96 131 146 167 188 203 209 220 217 201 189 171 109 99 110

GFSCGP_con_3kmhel_129.txt.gz
Helicity
145 203 182 128 157 185 102 113 130 163 154 149 108 109 71 53 47 29 4 -0 14 32 62 97 107 106 105 107 117 103 83 70 61 73 81 78 60 53 76 91 91 105 93 84
232 256 222 196 193 155 93 96 115 120 134 140 85 68 41 20 8 -1 -9 3 26 60 97 129 107 115 117 124 101 81 74 49 57 73 68 48 50 62 71 80 88 85 86 91
256 174 206 161 161 116 170 92 82 109 101 103 93 60 29 1 -8 13 20 26 47 75 91 100 107 110 113 96 84 72 58 47 64 62 51 48 63 58 63 73 66 71 74 81
141 196 185 174 229 236 183 218 125 97 87 105 95 115 33 8 24 42 37 43 60 70 79 96 124 103 88 74 87 69 60 62 68 71 68 73 68 67 73 58 46 42 57 68
275 172 207 215 262 266 169 148 131 126 117 97 81 89 58 49 24 19 30 44 59 87 87 75 88 63 64 87 74 68 67 67 68 55 51 48 56 64 52 49 45 53 62 79
227 175 222 201 201 139 104 105 112 104 105 103 93 84 78 57 80 60 71 82 98 88 72 57 57 61 67 75 76 66 70 63 61 57 58 64 64 63 55 58 58 62 67 71
202 191 153 194 152 147 151 118 160 134 135 123 72 80 47 33 57 82 95 90 61 52 43 47 50 57 57 72 72 68 64 55 56 59 62 67 63 60 64 69 75 67 59 64
209 183 172 165 175 143 126 148 169 148 122 103 56 69 61 65 72 53 55 56 51 33 30 31 36 48 66 65 63 61 58 62 71 70 71 76 75 73 73 67 59 53 53 66
125 139 92 105 107 161 94 103 97 111 96 115 56 38 43 49 32 46 63 58 47 39 33 23 31 53 54 56 59 68 72 70 70 82 90 82 81 79 72 65 61 61 66 66
87 102 99 78 106 82 126 66 91 84 109 93 42 44 69 67 68 68 65 60 65 54 35 23 30 48 50 53 70 82 86 85 93 97 98 99 100 95 81 79 78 80 78 75
70 64 67 90 70 59 69 63 63 79 65 79 68 85 70 60 75 95 84 76 62 44 28 21 40 41 46 59 73 88 106 114 117 116 121 124 120 118 110 100 92 89 83 86
91 60 72 49 50 76 85 67 40 76 46 62 81 68 60 81 77 88 76 45 25 8 3 12 37 70 92 86 103 119 118 120 117 132 139 131 131 136 125 115 105 106 105 101
86 64 70 40 15 27 33 28 61 79 85 43 81 82 81 92 66 58 24 13 17 17 14 4 11 59 67 81 91 106 110 113 122 142 161 168 177 181 167 139 133 129 127 122
92 83 108 56 57 72 51 25 28 34 39 55 46 67 64 36 1 -13 7 25 26 19 19 19 10 23 45 75 77 75 85 99 127 160 190 207 216 212 197 171 165 165 158 147
56 45 39 39 34 42 45 24 8 20 19 30 51 58 62 10 -12 29 35 40 31 9 15 18 37 54 68 84 87 84 69 80 113 160 216 255 232 232 225 216 203 197 184 177
24 24 18 8 14 24 34 20 -10 -6 6 21 16 -14 -22 50 20 31 39 23 5 8 21 38 60 84 95 109 110 97 88 83 98 146 210 238 244 257 273 270 264 259 230 220
16 5 9 6 -7 5 -3 40 55 36 24 14 21 10 41 23 28 24 28 -0 1 27 45 39 49 51 61 77 92 84 76 75 81 117 161 214 232 242 279 299 304 290 263 242
4 14 16 13 20 -3 10 45 45 21 13 12 5 20 28 35 31 50 -9 38 51 35 22 34 45 51 58 64 76 70 73 60 65 91 120 153 186 184 226 270 289 290 294 268
28 12 3 10 11 16 -16 14 26 17 47 20 28 46 56 45 16 11 110 87 63 38 33 44 56 57 59 67 70 83 72 74 81 93 102 116 161 160 225 289 302 304 324 292
-10 8 -3 -37 10 8 53 87 77 30 48 100 92 62 39 7 -7 34 66 37 30 41 52 64 67 62 69 84 87 82 80 79 82 84 88 98 109 137 182 232 263 296 326 333
9 7 7 -7 30 34 84 97 70 95 104 59 48 19 17 20 48 54 31 30 36 37 43 44 35 46 55 64 72 70 73 82 82 95 98 103 113 127 156 179 217 265 322 375
13 11 10 39 44 52 63 101 82 85 41 44 51 58 42 33 28 29 31 24 13 14 22 22 28 34 37 40 57 59 68 81 99 115 116 120 123 141 179 173 218 302 366 354
51 64 69 38 75 78 111 145 125 101 55 52 46 50 34 33 32 45 46 35 32 18 22 20 29 27 21 18 25 22 36 58 73 81 92 104 114 128 149 137 218 241 259 310
56 66 73 74 79 89 107 112 123 93 78 68 65 40 34 32 39 41 39 36 36 23 27 21 17 14 13 8 11 13 22 31 44 45 59 79 84 92 103 134 183 195 224 250
102 73 71 86 93 121 132 168 137 111 98 85 56 35 37 54 57 49 54 49 38 29 20 22 24 36 35 39 43 43 46 47 49 52 59 61 71 73 87 114 139 178 171 200
121 130 149 102 154 188 194 177 141 125 112 90 80 87 86 67 56 53 40 27 23 31 32 47 54 62 76 86 79 61 59 62 61 78 89 89 92 91 109 130 139 147 177 232

GFSCGP_con_3kmhel_135.txt.gz
Helicity
282 249 231 205 197 161 159 198 251 216 161 161 118 118 75 62 78 68 63 54 80 86 73 117 136 134 140 119 104 99 96 96 88 73 93 102 84 75 79 68 82 92 96 97
216 169 174 144 126 162 202 191 267 225 148 170 112 88 69 59 75 61 45 51 66 88 109 132 163 171 154 120 109 106 111 93 71 70 74 87 81 77 80 78 88 83 83 85
194 201 173 144 172 225 202 190 182 144 154 165 117 126 78 72 115 95 70 70 70 75 136 175 187 195 155 132 124 115 100 81 72 63 74 74 93 74 86 77 65 61 74 69
215 203 214 181 230 227 284 196 149 93 172 162 122 157 123 73 79 97 84 69 62 93 122 159 168 176 153 112 125 123 92 77 66 67 74 82 82 93 73 68 57 52 55 61
340 250 220 254 256 246 203 151 147 142 183 159 154 123 109 107 99 100 78 63 62 98 111 111 117 138 126 144 133 99 86 76 76 75 73 79 92 91 89 76 62 62 64 69
311 343 222 213 238 224 166 218 274 210 183 179 133 95 108 101 73 103 97 92 99 107 127 143 122 133 125 118 119 103 96 82 82 73 60 72 87 93 97 76 75 71 69 76
290 261 250 226 242 260 206 255 295 259 200 116 156 110 76 76 68 52 65 64 56 68 86 94 93 81 88 89 89 95 94 81 82 81 73 77 84 92 85 77 78 83 86 88
191 253 269 245 184 181 207 165 192 184 153 125 138 83 90 33 29 43 59 64 76 75 67 55 49 54 56 60 74 93 99 83 84 94 90 90 90 98 92 89 89 88 91 90
198 222 179 220 180 189 164 179 138 116 151 145 110 99 80 52 58 58 69 68 57 50 51 41 46 54 54 55 69 107 107 95 96 110 112 109 108 110 104 91 99 100 97 106
148 184 181 143 146 116 122 118 162 163 124 148 145 94 82 56 38 61 83 76 77 70 55 42 30 25 36 58 77 100 118 128 133 125 135 136 137 126 116 123 120 123 115 117
135 164 177 139 141 107 118 126 118 106 111 131 142 122 48 24 30 51 60 68 59 37 31 33 31 24 54 74 92 103 120 128 140 143 143 148 151 149 143 152 144 141 135 138
102 91 141 102 98 93 82 94 77 95 125 116 118 102 34 32 35 62 73 73 56 48 53 44 40 31 30 23 63 103 111 133 146 150 156 154 157 160 172 175 173 174 171 167
66 38 113 95 66 71 72 66 66 58 63 74 93 65 44 63 79 59 65 44 55 67 55 46 30 18 13 16 15 46 81 121 154 166 168 166 170 186 208 221 224 235 231 215
51 54 8 25 43 48 49 54 52 48 54 52 48 45 46 75 56 44 42 69 67 59 49 39 29 14 17 33 41 40 33 52 73 116 155 181 201 215 229 252 264 258 265 256
30 38 43 63 56 56 54 41 51 62 56 53 57 104 64 61 35 31 72 60 72 55 70 40 19 9 31 45 49 53 60 68 71 76 92 119 158 199 234 256 272 286 300 262
31 40 31 43 49 36 40 34 17 32 49 65 72 78 81 77 94 72 59 81 49 74 61 32 17 33 41 46 51 60 66 76 87 80 73 81 97 131 179 219 272 310 301 298
4 2 14 12 23 11 0 11 36 79 67 100 55 57 87 153 112 81 65 71 96 68 39 28 28 34 47 62 75 75 71 70 71 71 72 79 84 80 85 128 189 240 280 300
-1 2 1 -12 19 -14 27 37 30 65 46 95 108 133 130 109 96 91 91 93 85 57 46 44 48 58 61 57 54 49 49 48 49 50 50 58 65 72 82 91 120 165 245 283
25 -7 -15 -21 -6 22 15 22 35 55 -21 55 44 129 126 102 89 97 105 44 29 37 40 34 44 51 50 42 37 37 35 30 33 37 43 49 58 64 72 86 98 120 179 215
12 -12 -41 -42 -18 3 -10 -23 9 31 -20 55 111 132 103 99 101 69 48 36 69 67 58 63 55 50 51 52 54 64 62 61 63 63 70 66 66 74 79 83 88 106 152 173
14 1 -16 -19 -23 3 -6 17 55 30 23 104 122 101 87 76 65 64 90 98 86 93 97 84 78 81 69 55 53 64 64 62 50 52 59 65 64 65 67 77 99 93 96 116
-13 -17 -37 -23 -55 -53 57 85 52 46 107 105 109 85 69 77 81 89 116 133 137 134 123 102 91 80 62 44 41 38 40 39 44 52 61 66 69 77 85 87 96 93 100 111
8 30 39 42 41 38 43 53 73 68 101 106 99 90 89 103 122 133 147 154 154 118 96 71 62 54 40 24 18 34 53 56 52 65 74 82 78 91 99 108 107 115 114 128
46 82 81 88 74 109 142 135 121 136 135 126 105 81 88 114 130 147 136 118 112 101 97 76 66 62 67 60 49 50 61 80 101 109 102 108 113 109 126 141 148 147 157 169
63 108 87 108 127 151 105 109 133 165 160 148 140 132 146 162 155 125 124 130 118 97 78 73 70 69 64 61 59 71 80 98 109 134 139 140 148 141 145 166 181 193 188 200
187 179 203 101 78 122 69 138 160 164 153 164 167 173 176 168 169 144 124 104 103 104 89 95 79 74 77 82 74 82 96 121 132 135 133 154 170 149 159 180 161 130 131 126

GFSCGP_con_3kmhel_138.txt.gz
Helicity
277 305 219 208 197 169 218 252 269 243 189 168 125 120 64 62 70 55 49 57 53 53 60 114 110 110 123 109 103 96 92 81 91 86 91 90 73 65 80 62 63 70 76 77
259 221 206 153 164 230 214 229 314 262 179 190 131 120 100 67 56 58 64 50 52 47 65 107 105 120 121 105 98 103 92 96 82 74 77 77 71 62 75 65 69 68 66 69
146 208 150 121 133 207 210 185 216 199 187 185 132 159 91 75 94 74 58 64 67 65 84 102 115 123 112 103 94 97 93 83 72 67 80 81 86 83 76 55 49 51 60 57
195 165 139 116 135 158 184 175 176 149 213 179 159 170 120 103 83 82 76 70 58 57 60 101 149 136 104 85 94 100 92 73 69 73 76 73 76 73 61 61 54 54 53 59
122 155 151 159 120 147 149 138 179 198 195 169 182 162 137 126 100 108 87 71 92 76 43 67 112 104 119 108 110 91 81 71 77 79 74 76 64 60 68 78 68 64 60 59
157 185 162 163 166 162 159 209 279 230 212 224 180 139 133 111 117 117 133 123 100 96 87 71 56 85 105 102 93 88 76 66 77 80 72 67 61 61 73 71 64 56 59 62
261 238 233 200 212 228 188 249 302 298 263 191 207 150 100 130 130 106 91 83 75 70 66 65 77 76 68 72 78 74 73 67 78 80 67 64 61 68 72 77 80 82 83 87
199 228 245 272 218 192 199 154 184 240 252 191 179 105 99 112 102 94 77 64 59 60 68 61 53 53 53 54 60 64 70 72 90 89 72 78 82 97 92 85 91 88 93 89
150 201 177 210 211 171 152 157 129 133 200 179 135 114 115 82 75 72 63 50 50 55 61 60 56 47 41 44 54 82 95 101 101 98 105 100 104 113 104 95 98 98 94 98
117 159 178 172 171 152 114 84 160 172 152 158 133 97 82 80 61 66 65 61 75 80 70 63 56 45 37 34 40 57 91 103 112 108 124 125 134 134 129 122 112 119 114 122
88 131 162 149 145 146 133 123 121 113 111 91 100 93 88 46 65 37 46 64 63 52 55 58 57 50 49 48 39 42 60 74 89 111 124 130 132 139 145 141 129 136 135 132
94 109 148 119 105 69 84 103 85 91 92 106 87 103 108 59 40 53 56 65 71 61 52 57 64 58 57 45 46 29 47 74 101 117 119 129 137 144 146 158 168 167 159 169
134 104 134 118 96 64 83 75 63 53 70 77 83 100 66 62 60 59 72 79 83 64 71 73 80 69 51 48 53 71 81 74 82 93 116 126 143 165 178 186 191 205 200 200
62 65 31 43 65 57 55 70 76 54 32 57 72 42 24 32 56 67 70 76 80 66 77 72 77 67 39 40 67 81 81 68 63 67 72 87 114 146 165 178 199 228 249 236
19 53 31 23 38 43 38 45 66 66 54 32 41 35 -0 21 49 51 64 73 80 70 91 73 56 37 20 47 63 75 83 91 85 88 82 71 70 79 93 114 140 166 202 213
31 33 22 31 33 35 36 39 36 52 51 48 28 62 98 94 111 107 68 77 74 83 71 56 42 30 48 62 68 85 100 102 85 72 57 51 47 51 55 60 73 106 139 175
12 16 13 7 30 25 18 12 30 58 73 129 131 90 138 153 138 103 105 80 70 67 59 46 40 54 66 75 83 98 79 54 47 40 40 36 37 43 52 57 62 69 92 124
1 13 14 -0 15 -8 23 10 2 38 42 101 110 118 163 168 170 138 95 79 80 73 55 55 69 87 95 94 83 64 54 51 48 46 46 46 51 59 68 70 75 83 93 103
12 -4 -6 -14 -4 9 3 11 22 30 29 129 124 144 188 173 140 85 107 87 61 48 66 89 94 92 86 77 66 63 57 49 50 53 55 61 67 76 81 85 89 96 104 112
28 26 -24 -25 -19 -9 8 17 22 39 12 63 135 125 151 129 97 71 96 76 77 85 73 68 71 82 90 85 71 65 58 57 54 59 66 64 63 69 76 83 85 96 114 117
21 6 -7 -8 -10 20 1 -9 21 -42 -8 43 100 140 139 100 86 106 81 82 94 95 95 96 95 87 76 73 73 73 65 61 52 57 64 68 67 65 75 84 116 112 113 119
3 -1 -16 -17 -26 -11 23 63 7 8 58 72 123 109 106 97 88 99 119 125 126 139 138 123 112 104 92 78 73 65 65 59 63 63 66 72 80 84 97 102 120 123 128 131
-26 -11 -20 7 -2 25 10 42 51 55 67 52 74 87 106 112 104 116 130 156 166 151 140 122 116 108 87 64 55 63 64 56 53 54 56 66 84 97 109 115 124 141 151 173
20 60 44 48 44 52 61 87 93 75 88 112 129 135 125 123 125 162 191 194 181 146 139 119 113 112 122 102 62 40 45 57 71 78 79 87 103 94 111 131 147 168 177 185
46 82 63 66 58 94 83 92 113 151 155 159 156 140 141 175 189 189 193 186 169 150 123 117 115 111 91 87 78 62 53 66 79 88 92 98 109 118 120 135 152 163 181 195
152 134 159 75 44 81 53 87 148 169 156 151 162 178 202 193 182 184 181 157 138 128 117 113 101 86 80 78 64 60 60 76 88 91 98 120 131 134 152 153 136 113 107 90

GFSCGP_con_3kmhel_141.txt.gz
Helicity
224 348 257 241 225 149 207 265 303 340 277 222 191 174 102 91 94 69 52 54 47 47 52 77 84 88 104 88 81 75 77 71 79 82 79 70 60 68 75 69 66 67 64 61
215 164 209 189 185 166 195 241 318 317 274 212 155 169 129 83 69 69 75 58 39 71 76 82 85 107 112 85 59 72 72 79 82 83 68 72 70 69 79 72 67 58 56 56
396 209 157 196 235 185 191 179 221 218 233 195 141 177 120 84 79 70 48 53 40 44 57 78 90 114 102 63 73 73 74 78 80 70 76 86 91 88 82 63 52 53 60 59
435 285 176 170 197 177 186 164 170 161 232 184 182 163 129 97 83 56 49 54 53 56 60 72 94 119 102 67 84 76 78 79 66 76 84 84 86 86 70 66 68 68 66 67
235 264 149 143 139 154 172 162 192 222 196 158 189 157 136 142 97 59 61 57 75 67 66 52 65 82 95 110 96 84 81 69 64 77 85 88 78 66 65 77 74 74 70 71
223 149 98 96 120 130 115 226 289 242 203 193 162 137 136 122 109 113 130 129 121 121 103 69 48 81 79 99 99 84 74 61 65 77 81 82 64 61 69 78 78 82 90 87
118 173 142 136 164 162 178 243 333 302 264 197 221 167 136 137 130 123 112 134 142 129 104 83 81 73 72 78 63 64 71 52 63 77 87 82 73 76 76 82 90 90 95 100
112 166 168 196 164 142 194 170 207 262 270 231 210 176 145 112 155 170 153 132 131 106 86 68 60 69 57 41 40 55 70 70 81 101 92 87 82 95 94 98 106 99 104 103
91 155 152 171 156 169 161 162 133 132 236 203 168 144 111 109 147 139 136 124 103 80 75 72 72 62 48 40 41 63 75 77 88 98 94 92 95 103 111 99 107 109 108 113
96 120 153 181 142 133 114 74 171 192 185 188 158 107 73 87 94 122 105 93 86 87 91 98 96 81 66 53 41 47 66 70 74 79 95 102 111 119 123 126 117 130 126 129
125 93 160 149 128 114 139 104 143 122 118 117 96 63 71 40 88 73 74 77 81 85 94 93 94 86 80 77 78 59 48 53 66 92 104 113 130 129 126 137 142 152 150 149
106 87 140 133 95 80 77 79 107 127 114 100 41 42 145 100 50 78 68 79 97 90 80 87 87 88 96 86 80 73 71 67 74 79 83 88 92 108 113 130 148 175 166 169
77 108 172 135 76 70 89 80 73 79 71 38 40 48 102 122 100 74 74 80 92 79 88 92 98 95 82 66 62 67 79 84 83 82 76 75 86 100 106 114 130 148 162 167
37 79 72 66 73 62 80 85 80 66 42 23 40 42 32 40 40 54 62 82 87 82 85 83 88 82 65 47 43 63 79 87 88 95 93 89 89 84 84 90 103 121 147 147
3 28 36 46 58 37 36 47 70 77 62 13 21 33 9 -2 13 30 71 89 93 83 82 84 75 68 49 46 60 81 91 93 88 87 84 77 62 50 47 49 52 60 80 104
27 16 23 2 28 36 30 20 29 65 58 30 15 37 23 38 110 123 106 101 82 67 71 71 72 60 48 52 60 68 69 75 73 71 60 45 40 37 36 40 46 57 66 77
14 31 19 20 38 38 -0 14 53 61 79 115 80 55 93 134 139 134 114 83 73 67 71 79 56 30 23 37 57 67 71 73 80 75 67 60 51 51 51 54 63 72 77 84
1 14 17 11 28 28 26 6 21 71 46 94 98 65 88 141 205 174 123 103 83 91 72 36 25 47 59 65 78 91 99 96 89 73 59 50 50 56 63 69 75 82 87 88
-1 7 5 -6 13 33 -2 3 -10 11 29 7 60 124 163 240 256 183 153 134 89 51 47 60 73 86 107 122 120 110 99 85 69 59 50 43 42 49 57 64 71 82 83 91
11 -1 -21 -12 1 15 7 6 6 9 11 14 156 192 238 231 193 110 118 90 73 69 76 91 124 141 147 127 102 100 89 78 75 65 57 48 47 49 56 61 68 81 103 98
30 20 3 11 7 40 10 13 12 -2 15 26 77 148 213 145 94 95 112 83 90 103 133 162 168 144 117 108 107 116 104 89 59 45 39 42 48 54 65 76 101 100 104 114
20 11 7 11 -2 7 13 63 -14 2 33 30 58 87 104 107 114 110 101 109 136 174 182 172 154 144 131 118 112 100 82 62 49 42 40 40 43 59 78 86 105 109 117 126
-15 -11 -25 -3 -18 1 -3 -0 16 27 44 38 78 85 84 111 107 116 128 148 176 187 169 156 161 158 141 114 90 75 56 57 57 50 42 36 45 61 81 99 107 126 135 153
-8 38 -18 35 34 -7 4 57 63 58 66 87 94 105 112 131 139 146 164 185 189 177 181 171 174 178 164 123 78 42 56 48 38 37 39 53 71 81 108 140 146 155 161 160
36 61 25 36 -10 59 43 68 89 120 140 164 156 144 139 157 150 156 172 181 187 204 181 163 174 158 131 103 86 26 28 31 48 57 71 81 103 110 120 130 140 153 154 151
134 95 113 59 56 86 63 66 121 171 161 159 179 186 167 171 176 187 187 188 206 215 190 174 149 121 94 74 71 66 58 51 60 79 81 95 112 132 140 141 141 81 59 60

GFSCGP_con_3kmhel_147.txt.gz
Helicity
182 37 109 125 156 163 206 227 230 300 300 228 205 159 171 146 150 125 118 106 88 78 87 69 67 77 66 71 73 65 74 65 65 61 59 65 54 50 50 53 65 69 60 57
88 34 90 165 104 154 201 197 267 267 301 201 228 184 138 135 123 108 98 97 96 110 82 75 83 73 72 82 66 72 67 65 61 64 66 61 59 46 49 56 60 52 55 59
83 58 248 123 178 173 206 178 227 238 286 256 229 215 131 112 114 112 102 108 106 81 76 78 80 73 88 74 74 72 66 61 60 73 73 67 54 51 53 57 50 53 59 64
63 212 232 210 195 158 178 137 156 199 264 248 254 213 173 125 105 92 87 77 73 59 69 77 77 81 73 68 92 82 75 67 66 79 69 64 58 56 61 66 59 62 64 68
41 86 358 305 200 164 153 161 202 248 243 218 246 185 171 140 139 65 54 54 56 59 65 71 61 68 82 112 98 97 86 76 80 76 63 63 57 58 67 67 62 63 72 73
99 78 246 247 169 148 91 177 261 239 197 243 230 181 196 135 107 93 81 70 66 80 89 93 89 90 89 106 118 111 92 76 72 67 62 61 59 60 73 71 66 74 79 83
170 107 173 135 150 210 172 207 318 280 232 198 185 137 198 119 109 116 89 93 100 130 142 139 133 123 121 123 111 95 82 64 58 62 64 67 64 71 64 59 65 67 81 96
92 88 180 138 117 145 137 176 182 262 232 197 162 101 124 90 102 103 128 119 157 192 193 176 162 153 145 119 86 75 59 47 56 60 61 68 67 69 61 59 69 81 92 98
165 152 135 109 108 148 102 196 132 161 242 174 142 152 112 86 109 113 113 129 143 170 182 170 165 163 143 118 92 58 50 49 54 54 59 56 57 59 62 64 74 83 86 99
38 128 151 115 122 135 75 118 182 186 183 171 163 149 96 97 94 116 111 114 137 164 171 174 167 154 139 110 93 79 63 57 60 61 61 59 58 56 59 65 63 67 67 80
37 67 133 129 133 123 113 102 153 129 137 138 128 137 57 56 58 67 83 94 111 126 141 148 146 129 105 99 101 100 102 94 80 64 63 63 64 60 64 62 62 70 69 84
37 63 153 170 103 99 111 54 125 193 176 150 148 122 68 87 45 79 104 112 121 126 120 127 119 107 107 105 109 106 95 90 85 81 82 88 91 90 80 74 76 82 78 80
58 73 119 131 101 103 108 52 54 120 158 153 137 147 97 87 109 105 111 118 127 125 118 109 104 107 95 97 94 99 104 102 92 93 100 98 95 96 94 86 78 70 62 57
82 66 45 48 60 74 70 74 47 54 105 131 148 151 106 48 43 85 98 95 92 82 82 86 90 84 87 96 103 103 98 86 82 88 97 106 100 93 86 72 58 50 47 47
75 98 63 66 52 70 75 76 63 49 43 36 83 106 93 18 2 28 48 76 88 70 66 78 78 82 93 100 96 88 81 80 89 103 107 109 97 83 70 58 49 47 49 53
45 53 62 61 67 75 88 71 57 49 23 20 29 76 36 31 59 51 41 78 69 65 81 75 93 94 91 89 95 86 88 98 101 105 108 100 88 70 57 48 47 47 45 42
-55 -13 21 56 71 76 99 88 85 67 61 67 52 91 39 51 46 44 72 108 95 94 93 110 103 92 94 102 86 86 86 96 107 114 106 89 74 63 55 48 43 42 45 48
-21 -25 9 17 63 34 55 37 29 94 57 79 89 65 47 72 86 96 133 131 93 118 137 131 113 105 102 84 84 95 107 118 122 116 101 81 68 59 48 40 40 44 47 46
-15 -18 -2 -5 14 44 32 44 24 25 53 20 49 65 71 95 107 93 123 118 154 161 148 122 107 111 98 98 117 135 147 143 127 114 90 78 69 55 45 45 38 26 22 35
-30 -30 -14 -4 -5 32 36 22 16 26 53 24 12 43 130 130 110 70 147 209 211 178 136 115 121 115 123 143 157 157 143 126 124 106 90 71 52 41 35 26 23 28 35 40
17 -6 11 12 21 54 27 19 22 30 45 64 36 25 101 120 80 118 193 234 176 150 137 141 131 139 152 153 148 149 139 133 109 89 70 55 45 37 25 31 44 50 52 49
30 28 15 2 -2 25 -12 35 21 27 38 40 32 14 52 76 110 114 147 152 149 155 143 132 154 166 159 150 150 151 140 117 104 94 80 66 53 45 40 34 40 35 39 47
12 17 3 21 17 9 -4 11 15 9 13 16 11 16 47 64 72 79 104 119 118 124 146 159 162 160 151 143 136 141 126 122 109 95 84 75 65 53 51 47 40 54 75 84
3 9 -7 -15 -8 24 22 -8 -11 -15 -14 3 23 52 68 97 93 107 121 123 136 133 150 158 166 169 160 136 133 112 101 94 100 93 75 56 51 50 59 82 108 119 121 126
2 41 -11 12 -2 -14 -13 -17 -20 -19 59 71 75 77 91 133 127 135 140 146 144 143 154 162 188 190 177 140 123 99 88 91 89 76 70 72 83 85 112 145 150 150 155 132
115 90 46 -23 1 32 35 41 31 69 75 84 114 134 143 141 154 153 156 152 161 183 192 184 160 151 147 128 113 88 75 68 72 80 83 89 117 140 150 154 159 116 82 52

GFSCGP_con_3kmhel_150.txt.gz
Helicity
56 -37 -29 19 106 123 93 115 105 188 170 130 120 106 121 134 149 126 113 99 91 92 105 95 83 79 51 61 52 59 53 56 60 56 52 52 59 55 43 40 66 72 66 54
6 -16 -45 4 230 268 134 86 120 211 184 177 126 131 139 133 113 96 93 100 93 104 96 81 70 58 48 57 45 66 54 60 64 60 59 71 65 57 40 41 57 66 55 57
6 0 43 1 118 212 98 84 112 171 219 170 107 152 136 136 140 124 112 98 94 73 70 68 60 46 55 39 58 69 60 67 64 59 67 72 63 44 33 41 58 64 56 59
44 33 6 46 85 159 101 122 93 126 148 208 220 184 146 113 115 111 95 91 89 80 81 75 54 48 38 45 75 75 78 73 66 57 68 60 60 49 48 54 69 64 57 66
49 48 108 139 93 91 109 86 103 90 121 151 180 197 103 103 106 92 78 72 77 77 69 53 49 51 60 71 78 94 92 88 66 72 59 59 48 44 43 53 61 60 62 69
27 87 206 177 98 86 38 114 118 162 161 181 178 244 117 132 97 66 68 66 70 67 62 70 75 79 66 78 102 111 99 90 76 69 58 48 41 41 48 50 59 61 69 72
53 148 195 171 144 93 130 86 261 243 244 191 208 215 136 117 114 110 74 73 69 69 77 86 91 81 85 88 109 116 107 82 74 64 53 47 38 44 49 59 62 58 63 74
61 34 152 167 154 145 106 117 166 308 273 230 205 178 168 166 115 128 124 102 100 111 122 128 125 120 115 112 109 113 92 72 68 57 51 51 48 60 63 60 57 59 68 74
41 60 103 86 90 132 102 131 124 124 197 224 171 164 105 119 138 111 91 101 119 147 167 162 157 142 140 129 130 91 77 68 63 57 59 48 53 56 54 51 58 66 65 68
79 65 94 80 114 72 166 129 121 154 190 207 143 128 164 86 103 88 88 101 141 170 171 165 147 145 155 149 124 96 80 76 75 65 55 68 73 65 60 60 56 55 59 60
67 91 69 21 85 81 130 178 133 118 151 147 124 80 92 82 55 61 79 83 96 109 121 128 146 159 157 140 128 128 126 109 85 73 82 83 83 74 65 63 65 64 65 62
39 30 59 59 3 98 57 137 155 179 137 127 129 74 88 85 56 75 71 81 83 98 110 122 143 148 138 126 127 119 104 95 103 112 110 103 91 84 82 82 79 73 71 70
15 31 53 50 49 58 66 77 102 128 139 152 175 108 93 82 72 89 93 107 115 116 113 128 139 132 119 119 107 88 87 103 119 116 104 97 100 98 99 95 86 77 67 54
30 37 27 32 70 75 55 38 61 103 134 132 179 199 144 80 61 83 78 73 72 71 104 124 120 109 104 95 83 87 105 114 109 98 96 102 109 109 105 94 80 63 50 45
75 40 36 62 91 79 92 60 26 53 97 120 126 176 185 112 38 32 60 72 76 84 86 83 86 94 89 83 86 90 99 101 96 97 103 109 105 99 87 81 68 55 48 46
40 70 57 43 74 75 97 90 22 27 45 73 78 148 103 73 32 30 34 57 62 66 57 69 93 94 83 79 82 95 103 102 100 107 108 106 103 98 93 75 61 49 46 45
-4 42 74 50 52 72 54 76 47 9 4 30 53 65 24 55 37 27 43 49 49 49 63 97 97 91 89 87 90 102 109 106 103 107 119 121 111 99 84 72 63 56 51 48
-11 -10 12 23 41 42 44 45 55 61 47 31 62 46 17 51 46 37 50 76 63 75 121 121 115 110 97 100 116 117 104 102 117 132 129 114 106 101 85 68 57 49 43 34
2 5 -2 -4 8 50 40 43 30 35 46 3 10 17 43 55 59 35 54 55 79 127 137 139 123 116 116 119 122 111 114 130 136 133 123 114 99 87 74 61 46 35 33 28
-1 -6 17 7 4 48 41 37 37 34 44 5 6 16 -11 83 32 57 95 134 155 170 162 157 153 144 130 126 114 118 132 136 143 139 121 103 87 70 61 53 42 41 25 27
47 22 38 22 22 45 19 20 30 57 54 49 33 31 16 54 90 108 117 184 208 220 208 183 151 127 121 117 123 140 154 152 143 119 100 85 76 70 59 54 37 37 47 58
37 38 24 19 18 36 -11 30 47 56 44 50 53 43 22 60 101 106 139 185 208 202 170 136 129 124 133 141 154 170 160 139 115 103 96 86 73 67 55 50 66 72 67 58
26 22 5 16 9 -6 -2 20 19 23 23 20 14 1 -8 32 51 68 95 112 121 125 129 121 124 144 155 160 159 151 141 121 114 103 88 74 65 71 84 83 71 74 74 91
27 22 6 1 -5 37 44 27 18 5 8 6 12 5 12 43 57 78 98 113 123 121 126 132 138 143 155 149 137 126 125 111 93 78 74 82 86 76 67 83 90 102 99 106
-5 52 20 8 14 10 15 1 -5 -9 -8 15 33 31 41 74 83 93 109 114 120 127 130 128 141 157 158 136 122 107 93 83 80 82 78 70 68 57 66 94 114 141 136 135
121 102 52 -22 -30 3 14 15 7 -3 23 43 63 78 76 80 113 124 134 135 134 130 124 133 151 153 140 117 110 101 94 86 77 64 63 65 74 93 111 120 139 111 105 88

GFSCGP_con_3kmhel_156.txt.gz
Helicity
14 53 77 93 121 58 77 59 -9 -13 43 37 77 94 131 97 124 109 129 159 183 199 205 200 222 210 181 158 121 103 90 65 71 52 38 43 45 52 55 64 61 62 50 57
24 68 29 -21 -28 -5 8 -16 -25 -49 6 -118 42 93 65 71 84 115 134 147 170 196 225 216 225 207 172 143 117 92 86 62 45 68 69 90 81 70 81 70 57 50 47 59
62 64 -14 46 24 4 16 -30 4 -23 29 73 79 91 70 65 89 106 106 123 164 194 209 212 190 167 140 121 102 88 81 59 81 98 92 95 77 70 57 52 51 40 46 63
48 106 82 52 6 -4 38 85 132 84 41 104 95 140 111 86 99 136 120 122 134 136 163 169 152 134 113 105 95 90 82 84 78 88 67 63 55 62 68 75 69 62 57 67
18 36 18 31 74 101 107 63 -14 6 40 67 94 124 116 96 129 146 166 144 139 124 129 119 125 113 111 117 101 97 103 93 82 71 70 69 61 71 78 74 63 50 66 77
54 72 1 2 33 50 192 97 53 17 20 98 127 109 100 117 109 166 181 154 130 137 135 128 134 129 125 131 128 120 117 88 94 83 74 74 65 81 77 64 57 53 59 77
60 25 19 42 57 61 137 97 42 88 108 121 122 78 99 99 96 145 127 125 130 178 163 146 136 142 142 153 141 125 113 105 100 95 88 74 68 77 73 58 62 64 69 72
-7 2 25 101 75 80 15 92 139 145 146 100 121 103 51 304 230 71 101 101 164 171 151 151 143 146 164 159 134 123 121 112 108 95 90 83 76 80 75 64 71 70 70 63
-5 -7 16 4 15 33 22 36 91 106 70 81 159 100 96 175 300 302 136 157 175 185 180 176 163 146 153 145 121 114 116 107 108 98 95 83 73 71 67 64 70 68 66 65
7 6 15 14 -6 -7 7 15 91 51 26 180 142 156 169 77 140 325 344 294 293 270 245 207 183 166 156 129 126 127 120 127 118 104 94 77 65 67 73 74 70 70 63 68
20 14 9 8 33 -43 5 44 80 14 79 93 136 155 153 68 73 178 249 263 275 254 220 196 197 197 171 163 163 160 148 146 122 114 89 87 87 101 88 81 82 89 91 77
43 38 18 24 37 1 16 9 30 54 117 73 81 229 150 114 82 130 160 187 201 191 184 204 183 170 162 160 165 156 151 138 127 113 106 103 117 111 99 111 125 114 93 91
29 19 20 29 35 31 -29 22 -4 84 101 35 150 181 82 162 105 111 156 159 163 182 197 181 187 188 185 167 170 158 137 132 115 105 106 112 118 125 148 148 126 112 105 89
20 20 12 19 11 71 26 24 5 60 100 155 73 64 47 98 74 129 117 127 160 165 160 165 183 186 171 167 148 129 131 109 100 104 120 134 152 163 154 133 117 109 100 94
10 20 31 34 -2 30 48 55 23 26 51 91 98 133 154 38 54 89 126 147 146 148 145 134 158 173 168 146 134 136 117 104 93 108 139 158 158 152 136 128 120 107 101 88
20 35 29 24 11 22 16 41 67 17 28 86 107 138 108 103 82 110 88 110 121 120 116 116 154 143 130 116 117 109 96 91 97 132 153 149 149 136 136 134 125 114 97 82
20 14 41 18 10 28 17 -25 10 8 10 43 80 76 55 89 101 82 78 80 92 98 105 118 139 129 120 106 117 99 102 98 134 153 154 157 147 148 145 136 121 102 87 81
43 8 -6 -7 18 24 46 39 68 22 36 39 37 20 32 51 71 55 65 108 106 114 115 130 155 137 133 137 128 141 118 125 144 156 157 153 151 148 140 123 106 95 83 73
34 15 10 3 7 66 57 17 49 12 5 28 31 16 -11 8 25 45 42 84 74 113 132 156 153 169 183 160 148 140 141 146 154 156 153 151 151 147 133 117 94 76 79 81
28 25 33 14 24 43 37 13 37 67 25 35 32 27 33 22 36 48 65 107 127 191 192 205 234 225 196 156 140 139 127 134 149 148 151 149 145 131 107 80 72 78 82 78
48 60 76 35 32 40 14 11 29 44 33 19 21 18 14 17 27 85 175 262 296 311 329 317 259 212 182 157 153 142 146 166 149 153 151 138 111 87 70 73 80 75 77 93
71 54 54 52 44 32 13 28 33 25 43 28 25 17 18 49 76 130 202 253 309 313 279 244 267 247 196 164 163 167 166 140 143 138 126 99 76 74 80 72 78 80 83 91
41 55 36 29 27 -9 -15 28 41 49 28 28 7 3 17 38 59 99 146 166 176 197 219 230 219 203 177 165 139 163 143 148 141 124 98 86 88 81 72 82 74 87 97 118
42 35 43 -10 10 34 26 21 9 27 27 17 7 3 9 25 40 62 87 107 130 147 157 159 158 150 149 163 186 156 136 119 111 107 104 87 85 80 78 79 91 103 106 116
65 70 36 39 29 11 15 4 7 9 41 31 21 17 28 38 40 59 78 98 113 129 129 119 127 143 151 143 135 115 112 115 108 95 89 86 77 79 87 95 99 110 122 129
76 64 67 15 -11 -29 -19 16 29 17 10 13 33 55 69 69 76 85 101 113 122 134 147 166 157 140 118 120 119 112 105 103 102 98 87 85 94 100 103 105 120 115 91 70

GFSCGP_con_3kmhel_159.txt.gz
Helicity
71 102 113 67 56 18 97 89 73 100 65 34 40 57 5 66 193 160 190 166 155 173 265 200 181 170 162 160 151 127 115 87 102 90 78 52 55 38 58 52 60 68 56 47
100 80 23 -25 10 2 -45 -37 -9 14 37 58 17 23 -41 7 240 157 183 185 231 295 244 197 174 168 172 162 138 122 106 83 73 75 58 44 51 57 65 52 56 69 46 51
176 191 115 59 28 41 63 29 23 14 47 46 43 -1 -26 4 224 168 145 203 225 281 266 220 192 180 191 166 139 109 91 78 69 89 94 109 83 88 78 59 50 54 50 52
84 123 157 156 121 124 53 72 83 36 -46 2 108 -32 87 79 191 125 126 195 241 287 274 264 217 192 155 152 144 115 92 81 91 75 84 62 54 63 59 53 54 56 49 53
90 105 87 59 95 113 166 118 190 59 8 29 57 96 37 138 90 114 116 229 239 249 272 248 181 128 135 151 136 115 99 92 89 80 63 56 63 74 74 80 82 54 38 47
160 152 47 12 26 88 92 70 62 11 71 28 26 96 119 128 119 82 135 194 195 216 209 203 171 153 136 138 139 120 110 90 86 76 61 60 67 76 92 83 62 36 43 47
78 104 51 63 59 22 39 59 7 74 80 8 18 49 207 67 92 101 164 147 170 178 193 189 153 120 128 121 124 122 116 101 88 76 71 68 75 84 80 75 51 44 57 58
15 -7 52 53 47 32 44 21 27 55 84 50 64 75 49 89 101 115 187 183 179 163 161 122 109 120 119 120 132 136 117 110 89 86 76 79 85 82 73 59 53 58 56 55
13 -4 65 74 48 36 25 17 7 53 34 71 69 44 77 38 78 161 217 239 188 174 150 133 131 141 152 151 132 130 125 102 93 88 94 90 83 80 61 57 62 59 61 65
11 1 20 27 17 0 37 12 50 32 35 29 27 13 16 67 146 149 169 192 188 218 204 177 159 162 168 152 140 124 114 99 93 100 97 86 75 54 67 75 62 63 72 75
31 30 11 9 17 35 2 19 -71 -4 16 39 38 74 15 13 62 128 118 140 203 204 209 202 198 174 158 147 137 117 111 127 126 112 100 98 77 78 92 84 88 97 104 98
22 40 13 6 26 26 -6 -7 -63 -21 16 13 162 101 43 38 69 193 209 224 271 294 269 231 206 191 178 158 144 137 138 143 120 109 109 105 106 117 120 121 119 115 116 109
25 28 17 19 25 37 15 5 -21 -46 -1 114 202 182 81 55 111 173 280 277 291 265 233 222 197 170 156 149 147 153 150 139 131 126 135 127 139 142 137 134 133 131 124 118
36 32 19 19 5 8 26 28 -5 6 10 121 141 254 136 73 78 107 155 217 230 209 186 183 167 148 145 148 156 150 145 142 133 132 131 141 142 138 138 140 137 129 117 108
28 15 28 -9 8 -32 -18 22 25 8 28 46 113 195 128 60 59 82 114 143 157 142 138 139 140 147 148 147 145 146 139 121 122 135 138 134 141 148 146 141 129 122 116 100
63 27 19 16 20 -13 -24 -10 24 41 -8 71 49 100 113 65 118 117 101 111 112 104 100 108 119 132 125 120 119 126 119 108 108 123 134 136 143 143 139 136 133 123 108 93
74 36 15 -7 9 -6 17 5 -5 25 43 -6 49 44 9 48 102 90 89 94 85 71 75 100 99 96 104 107 113 109 89 96 120 132 131 132 137 146 142 133 125 115 105 96
69 38 39 7 1 -8 -7 31 21 36 76 10 39 20 -2 14 46 78 132 111 82 83 90 104 100 104 104 113 117 105 106 122 129 127 136 146 149 140 128 126 123 109 91 86
56 43 31 13 13 76 28 14 52 54 58 40 50 34 1 2 47 76 72 120 95 88 90 116 110 127 142 131 118 126 126 124 137 136 138 138 129 128 128 126 111 92 89 87
45 56 50 24 34 42 30 38 42 85 56 39 25 60 40 17 71 49 71 87 125 124 136 170 181 191 170 130 129 146 139 140 128 121 131 119 119 124 119 104 95 78 80 81
57 66 97 69 56 65 31 26 55 45 55 46 16 22 32 5 17 59 94 197 188 199 227 235 212 173 148 136 147 154 132 127 127 124 113 113 113 110 95 85 81 82 91 92
91 77 62 61 64 43 11 22 27 34 63 40 30 15 14 44 72 126 196 245 267 276 265 239 232 204 164 140 158 146 140 112 109 112 116 116 103 93 90 88 87 79 72 84
49 88 50 68 41 16 -12 7 26 18 26 22 4 -7 8 29 71 122 171 225 246 243 234 217 217 199 166 141 138 134 92 104 117 119 113 103 99 94 96 89 78 85 95 99
55 74 76 24 17 47 27 38 15 19 21 8 1 -5 2 20 31 69 109 147 175 166 167 161 181 180 166 118 107 111 106 111 116 112 104 98 103 94 84 84 87 94 99 102
99 92 78 63 29 22 35 17 16 40 35 27 6 12 20 41 36 55 70 97 113 121 121 121 121 110 104 112 122 109 106 105 108 104 101 93 82 84 85 89 90 97 102 100
57 47 57 9 13 -7 -9 -10 4 39 11 3 37 52 44 59 49 67 75 78 95 98 91 101 103 113 98 99 102 102 98 99 97 99 87 80 87 95 97 97 101 93 82 66

GFSCGP_con_3kmhel_162.txt.gz
Helicity
60 98 143 145 157 88 75 19 63 48 61 83 72 57 24 -25 -20 74 132 130 207 190 182 167 194 211 213 186 162 143 138 117 133 131 112 91 70 64 75 70 69 63 73 73
95 136 142 147 156 110 39 20 -35 -14 29 48 56 31 0 -21 -32 59 83 110 223 270 189 166 188 181 184 176 138 127 119 111 100 105 91 69 74 58 81 62 60 67 76 71
120 142 112 172 139 132 87 64 27 32 -35 -22 74 -23 -43 -42 -6 80 74 68 204 236 222 183 189 180 187 158 112 124 106 97 93 87 105 116 121 110 96 62 53 57 66 63
70 95 108 159 213 199 197 146 49 42 -2 -18 48 -49 -47 -35 59 84 118 30 171 225 235 275 220 184 161 123 117 127 116 103 95 90 97 94 74 80 52 58 54 60 65 50
110 155 163 142 106 102 222 94 143 52 76 27 0 -4 -82 -4 79 145 174 102 175 221 285 300 221 153 120 124 130 139 122 105 107 88 81 84 84 64 83 72 74 62 50 40
157 194 132 113 70 49 114 151 162 174 62 21 109 57 -11 92 140 197 219 131 194 231 268 282 220 175 157 165 148 141 120 104 100 97 83 69 67 73 84 75 69 58 48 61
51 78 96 85 51 41 41 27 29 30 32 43 34 14 -108 112 153 220 235 136 151 238 269 286 227 186 155 135 137 138 119 108 101 96 77 69 66 65 62 68 65 64 65 71
27 5 69 96 79 58 99 39 47 1 10 83 95 74 28 19 86 53 109 107 136 228 259 261 223 173 149 130 124 125 109 115 103 96 79 81 74 73 73 76 71 66 68 67
59 35 40 122 100 57 31 52 20 24 36 40 92 120 23 81 76 85 77 165 132 216 236 226 205 179 145 138 126 121 117 114 107 93 99 81 80 82 80 75 71 76 69 76
43 49 25 14 49 50 68 39 11 -26 -8 66 62 89 36 73 93 58 98 118 176 192 199 191 183 165 152 155 164 143 127 113 103 100 91 87 81 83 83 82 80 77 80 87
70 68 23 41 32 26 59 36 -15 -81 -22 16 10 20 32 2 7 37 125 156 236 192 168 172 165 163 168 180 160 142 124 119 110 94 94 97 92 93 90 89 93 87 107 105
63 64 49 96 35 31 36 31 -34 -53 28 -59 -44 41 52 41 -41 49 74 169 247 198 193 180 168 174 167 166 157 130 123 116 103 110 117 113 113 109 110 109 110 109 124 114
63 66 14 30 23 18 8 25 -22 51 -42 -27 69 89 61 59 92 95 140 170 213 221 211 205 195 175 175 166 148 135 127 125 130 138 142 133 126 119 120 124 119 130 129 120
74 61 59 66 0 4 15 -17 6 19 -30 85 294 326 57 25 12 98 141 169 197 223 219 220 191 167 162 156 155 156 149 139 141 150 145 132 119 124 126 125 135 141 130 134
100 50 37 2 1 -1 43 -20 6 0 4 114 420 286 86 24 6 61 127 170 179 200 193 164 158 154 157 163 169 164 155 148 135 139 136 127 127 138 138 142 144 144 144 130
87 77 39 4 -3 -11 6 15 -24 -6 25 155 176 206 72 24 55 82 98 113 131 147 138 120 120 131 141 142 134 140 129 120 124 135 125 121 142 138 135 147 150 147 139 131
87 88 41 16 2 -14 4 33 7 17 24 63 67 81 35 68 42 28 63 75 95 111 108 108 103 105 111 111 114 108 106 116 129 128 123 128 122 132 141 146 148 145 131 111
78 63 67 54 12 -10 -23 -8 3 47 27 58 71 17 15 47 66 55 80 75 71 91 100 101 104 109 110 119 116 120 115 118 127 125 121 113 118 136 146 150 141 120 110 112
81 58 54 34 39 44 -6 31 33 37 22 10 106 98 28 26 76 50 74 103 96 89 82 77 83 112 109 106 113 132 126 125 120 104 100 111 131 143 137 134 130 115 108 96
74 62 65 35 25 42 12 16 38 45 45 39 33 45 33 27 43 55 23 50 85 120 113 107 125 142 132 116 131 142 119 108 97 89 106 128 128 125 130 126 114 94 88 79
74 60 85 59 42 43 62 19 36 47 68 18 14 27 11 32 20 36 24 67 98 106 127 154 139 126 121 123 141 140 114 98 88 111 130 124 124 129 120 109 94 91 92 96
81 77 50 37 42 33 19 27 22 36 35 43 25 4 3 12 23 57 89 121 149 178 187 188 192 157 131 132 154 132 112 95 115 123 127 135 133 121 107 106 94 97 110 108
36 79 62 85 49 20 -2 17 0 15 35 30 18 -3 -3 19 40 75 125 176 192 203 201 188 195 182 144 122 126 124 99 107 119 139 143 130 116 109 107 108 110 107 109 103
83 122 102 51 20 42 38 35 17 10 27 33 2 0 3 23 29 77 128 176 206 193 183 176 193 179 150 113 113 121 109 122 138 137 119 108 109 109 112 107 95 93 93 89
94 98 83 97 38 15 54 37 14 17 28 38 25 10 15 47 35 67 91 117 131 139 138 128 127 124 120 120 136 125 122 121 123 110 99 102 105 103 92 87 86 93 95 97
88 56 64 39 21 2 -2 -1 9 65 43 24 42 45 36 41 51 67 78 82 95 95 83 107 117 136 125 131 131 119 103 97 97 99 90 85 86 87 89 94 103 106 103 96

GFSCGP_con_3kmhel_168.txt.gz
Helicity
90 142 131 69 130 124 136 125 116 172 164 132 177 139 25 14 51 56 64 104 74 93 110 43 113 166 181 188 202 215 190 192 206 208 182 151 114 94 87 67 58 54 58 58
117 146 83 79 117 141 168 134 203 182 136 177 195 219 97 19 66 80 80 78 78 82 84 64 108 144 173 182 188 225 187 172 172 166 164 129 107 86 77 67 64 56 58 57
165 146 95 85 79 117 163 140 120 128 103 215 224 349 195 65 43 79 87 99 105 67 90 100 127 131 191 187 183 189 184 164 164 168 172 159 138 128 99 76 60 57 55 64
94 90 112 102 63 60 56 57 88 113 106 167 294 220 208 128 66 97 62 82 83 93 91 144 117 135 149 194 169 197 192 170 153 142 136 116 120 98 59 56 55 55 64 64
106 145 132 95 58 100 91 72 120 132 128 111 269 245 310 190 134 24 94 95 77 102 104 133 117 111 134 178 188 206 190 182 148 125 109 97 91 83 77 75 70 66 65 62
158 184 87 89 59 97 82 54 99 74 71 104 116 177 263 122 79 66 102 99 96 127 123 102 110 145 166 143 211 197 211 207 152 106 86 71 65 70 76 71 64 60 62 62
132 108 92 76 62 52 44 52 41 45 125 152 192 215 324 158 24 96 67 108 109 163 136 82 130 215 182 168 204 179 203 228 155 103 71 68 52 55 50 49 52 56 63 41
136 98 111 135 123 82 97 88 56 99 116 143 232 122 125 39 43 41 -20 64 106 175 141 86 121 286 197 223 139 165 199 185 106 110 53 65 64 63 51 47 56 55 59 68
160 189 201 199 125 148 87 93 93 118 174 162 143 224 151 52 19 15 31 53 62 139 116 98 166 193 172 208 169 181 200 179 127 116 102 89 69 67 51 58 64 56 78 67
164 217 121 67 98 80 120 57 61 97 70 86 137 150 95 131 62 20 40 38 104 156 167 160 167 166 183 206 192 175 196 171 120 124 91 88 72 80 63 62 71 78 83 83
169 215 176 124 100 78 74 56 39 99 116 69 80 161 125 51 51 40 36 62 64 110 134 142 129 152 183 231 161 185 217 142 115 115 107 101 90 86 71 77 80 100 83 99
134 202 215 199 79 46 40 55 85 54 43 104 149 63 196 -55 15 127 47 18 44 119 124 168 203 192 177 216 142 147 209 91 86 118 122 94 92 91 95 97 99 102 102 108
153 183 187 99 60 77 36 84 96 97 39 82 77 112 236 -39 157 103 37 38 120 142 146 155 148 168 164 168 128 174 128 92 124 142 123 106 105 111 111 109 118 99 113 125
157 224 244 194 169 107 82 98 96 66 76 72 63 119 324 -2 275 127 28 79 149 165 123 162 165 167 164 146 135 123 87 113 178 125 128 120 114 121 114 121 113 122 123 139
174 192 186 182 178 128 118 102 79 94 177 131 224 246 193 97 112 74 88 85 101 118 118 150 138 151 153 143 146 112 130 156 142 147 148 135 145 129 142 134 132 136 151 142
148 164 130 113 88 69 64 73 87 96 85 195 255 221 -73 56 13 76 61 65 80 120 134 139 142 116 102 105 108 157 141 145 158 164 154 144 143 146 135 135 140 146 142 138
143 144 125 131 46 35 10 -38 31 46 53 107 158 105 2 12 -10 74 74 118 97 111 94 101 87 77 86 140 135 142 154 164 175 165 148 142 138 143 134 129 137 143 135 106
153 139 132 126 38 34 51 14 19 54 72 78 125 66 46 26 -24 59 68 123 133 115 94 76 78 125 137 146 168 172 160 166 167 159 141 130 138 138 125 133 133 117 96 95
125 125 107 90 98 72 18 -30 8 1 64 41 61 37 1 -1 8 2 -2 105 186 85 86 93 105 121 147 157 155 180 184 174 159 134 126 110 110 119 120 124 105 90 89 87
111 102 116 95 90 67 63 -21 24 21 46 18 24 30 13 40 6 -9 -36 -6 70 63 76 97 117 142 157 148 153 174 156 148 133 108 99 96 103 109 106 90 92 81 82 83
92 95 132 115 82 53 83 15 26 30 57 35 44 36 16 5 10 27 34 32 57 45 62 104 114 123 121 130 156 165 139 128 102 112 118 113 103 104 89 88 83 81 82 81
113 99 81 84 65 30 32 8 -8 6 -6 2 37 9 10 0 2 16 6 24 43 66 83 93 124 125 121 127 151 140 139 101 114 118 119 112 101 92 91 96 78 79 77 79
47 90 85 121 96 63 47 39 16 -6 -7 -9 0 -18 -38 -8 11 33 38 40 66 69 93 100 134 149 141 131 132 143 95 104 113 122 113 102 105 100 83 76 69 62 71 81
39 95 90 45 47 56 39 27 26 10 -3 -10 -11 4 -33 -20 1 44 67 68 93 100 110 119 148 143 140 127 147 133 89 97 118 118 104 95 93 82 70 61 61 68 74 69
46 66 81 89 41 15 -25 -6 36 -1 -11 -23 -17 -24 -19 2 9 37 76 101 111 124 125 118 131 137 136 130 137 104 95 103 120 114 98 87 75 66 65 64 57 56 44 59
91 50 72 60 70 0 -23 -3 -12 3 1 -13 -56 -52 3 16 18 44 69 72 88 110 114 145 156 162 135 140 127 104 93 102 111 102 76 64 67 67 70 70 60 39 46 47

GFSCGP_con_3kmhel_171.txt.gz
Helicity
132 141 147 117 133 122 109 112 112 178 140 75 123 167 238 216 119 121 68 63 88 63 64 110 100 73 118 188 180 236 275 204 251 234 192 164 133 111 100 82 65 60 57 59
148 155 113 101 94 122 110 108 135 102 68 86 148 236 298 322 237 158 100 18 64 60 50 57 68 84 119 178 170 220 221 201 202 223 193 166 131 112 97 80 75 61 57 58
170 177 157 166 136 144 88 129 74 63 17 85 77 127 106 213 209 129 85 35 11 50 60 44 33 77 128 157 206 189 192 178 210 189 216 193 170 150 116 87 78 66 60 61
60 93 141 174 167 141 118 60 95 95 47 98 132 94 145 105 180 186 113 51 2 26 38 58 53 84 115 177 221 200 195 179 182 181 180 129 141 126 92 74 70 69 63 62
88 162 164 151 134 192 180 119 101 102 111 86 116 172 280 190 161 89 124 85 23 31 52 72 85 97 110 169 201 229 221 192 174 158 154 138 129 116 100 86 75 71 67 60
114 168 123 146 127 147 122 69 93 53 60 94 91 144 163 106 83 16 68 103 34 73 60 67 104 127 117 181 228 243 207 169 161 154 135 121 97 98 106 84 79 66 57 56
124 104 93 148 162 117 103 69 99 74 107 94 112 173 142 132 113 101 40 29 55 101 123 98 130 149 125 185 214 234 203 167 172 158 115 114 88 77 79 62 69 57 52 50
156 87 102 161 213 177 134 111 115 100 124 26 157 60 116 121 86 40 58 43 74 40 126 105 138 149 95 164 200 222 215 190 230 203 138 107 65 90 79 55 61 58 51 54
177 189 150 182 177 175 145 110 129 162 169 93 134 172 232 122 51 114 157 59 34 54 96 113 150 152 120 165 203 195 189 198 227 294 300 89 68 75 65 63 58 76 70 68
182 200 136 93 168 110 117 91 75 40 77 68 148 151 144 -90 -19 129 137 96 12 48 113 138 156 116 114 124 122 209 217 232 209 144 285 82 89 91 77 61 72 70 81 77
214 238 219 136 164 126 98 93 77 78 119 131 41 137 160 78 140 76 117 87 -3 83 136 161 156 107 133 42 219 211 189 204 148 183 149 124 119 75 79 90 83 85 84 72
172 259 258 209 90 78 90 77 127 113 107 156 115 221 234 134 157 226 163 61 -15 120 137 156 182 113 192 196 162 158 188 209 228 145 134 124 109 90 99 96 94 91 109 99
200 243 224 138 131 154 95 134 154 129 111 164 138 181 229 146 337 132 87 48 -17 104 92 126 144 116 164 176 143 150 215 273 288 174 132 119 122 110 107 95 110 113 111 103
196 278 286 274 203 173 118 144 129 120 134 123 187 239 311 231 256 22 20 17 57 72 65 68 101 57 132 172 130 173 212 276 305 146 122 113 107 115 113 119 120 107 105 116
192 220 227 244 220 156 151 134 114 130 187 129 177 191 228 189 155 21 31 48 56 85 56 81 139 151 105 134 157 203 316 328 148 142 119 114 141 149 143 138 132 120 114 120
164 173 155 145 108 91 111 108 98 91 65 131 172 257 118 -76 102 10 58 28 32 60 90 72 118 93 83 97 101 141 280 178 102 151 145 137 170 163 144 136 127 120 124 111
166 164 134 133 61 36 53 54 28 52 58 107 65 131 -0 -16 37 20 50 64 42 59 73 83 51 68 52 107 104 132 152 92 146 184 153 137 171 166 125 118 115 116 101 88
182 166 146 132 44 60 68 29 54 95 68 76 33 56 1 -0 50 122 111 95 85 71 66 76 94 73 46 121 114 152 175 163 189 177 155 141 155 143 111 113 111 96 88 86
144 154 122 103 120 77 23 16 29 22 35 55 26 20 -24 25 74 135 108 70 116 85 54 75 51 63 104 112 101 202 182 198 169 131 129 120 119 112 98 99 95 90 77 71
147 131 133 122 84 68 78 15 59 28 17 49 11 -3 10 -4 52 90 100 161 141 114 83 76 96 131 160 156 148 190 168 155 129 107 106 84 76 85 98 95 83 65 65 61
109 117 117 125 77 39 83 11 16 -1 19 14 5 9 17 -12 10 15 -9 132 149 94 58 96 113 119 118 132 154 173 139 113 93 106 97 85 94 110 94 78 68 58 57 57
93 119 70 73 66 33 43 -6 -25 -4 4 4 -20 -34 3 -7 13 33 -5 63 87 62 92 115 119 112 101 104 131 128 118 91 91 103 119 117 105 88 75 83 60 62 57 55
52 73 82 90 75 90 65 62 43 25 46 -1 -18 -47 -40 -23 3 27 39 67 66 74 105 113 114 117 94 80 95 123 73 77 116 136 127 118 106 87 62 63 53 51 49 52
42 69 66 57 40 50 8 25 29 24 20 -1 -23 -34 -61 -33 -27 24 20 27 59 67 87 82 102 97 93 80 98 95 57 86 122 133 112 91 92 79 68 55 47 48 49 57
58 66 44 52 37 45 41 -45 2 -5 1 -15 -38 -49 -75 -48 -27 41 36 36 56 76 81 70 85 79 76 94 115 86 78 108 135 118 90 82 80 69 59 53 44 49 36 32
124 97 80 39 36 51 36 -20 -26 -29 -8 -12 -35 -51 -43 -6 24 34 50 42 58 86 103 112 113 116 100 116 110 91 83 101 111 101 80 70 70 60 58 58 57 20 21 36

GFSCGP_con_3kmhel_174.txt.gz
Helicity
112 99 63 82 105 91 119 139 144 69 38 47 33 43 32 57 26 53 51 58 85 102 65 90 93 75 71 80 86 107 223 355 354 303 273 230 172 141 123 112 90 82 73 71
89 73 88 102 105 132 132 135 131 95 14 42 31 89 8 29 31 59 65 40 58 51 21 74 55 59 39 52 101 143 163 245 254 188 207 214 170 149 124 117 103 89 74 73
104 72 62 101 93 119 115 133 121 110 30 31 22 40 16 35 23 59 84 71 39 10 -14 3 50 44 35 58 120 165 206 234 289 196 271 223 198 172 157 119 113 95 79 77
77 92 100 98 105 118 164 147 119 89 76 101 131 79 20 13 3 58 65 73 45 9 -14 17 58 34 30 62 105 171 222 233 345 170 206 169 178 145 125 107 107 99 84 80
123 130 102 77 88 186 169 113 88 81 95 91 47 115 80 19 29 24 26 31 57 3 -26 -12 31 23 43 74 132 177 275 260 294 151 143 156 147 152 130 119 102 98 95 81
102 159 112 134 94 109 92 89 63 99 110 118 71 124 86 29 9 12 26 12 75 70 -38 -17 20 29 51 96 145 208 255 252 274 137 136 132 132 137 138 119 110 98 94 73
131 133 116 111 104 105 133 91 111 113 124 107 132 172 138 35 103 54 -28 -24 80 74 18 39 7 42 78 123 169 217 249 287 295 180 172 152 139 114 108 102 99 86 82 60
130 139 131 139 113 119 110 120 116 148 79 35 37 143 110 180 151 104 -33 -28 38 86 44 63 20 55 81 125 171 215 228 248 267 119 187 135 158 146 124 100 88 77 70 53
165 237 185 105 84 144 214 122 88 145 86 160 190 202 185 128 160 38 -61 137 106 86 46 41 37 47 99 125 148 204 233 329 309 424 107 123 154 120 95 83 83 78 78 54
237 208 161 127 139 103 88 110 85 79 137 139 119 116 75 90 157 -22 191 141 96 97 38 51 46 78 115 123 141 186 228 130 206 185 195 154 142 113 95 86 81 79 72 63
225 254 210 141 126 63 128 89 105 132 151 170 83 50 106 142 66 257 190 61 67 69 38 52 65 138 128 128 167 236 255 191 235 200 213 244 254 99 81 85 82 89 58 65
192 278 240 119 15 42 135 129 103 122 144 135 144 228 198 105 135 119 26 32 -19 30 41 64 83 146 153 113 119 215 337 237 237 275 146 186 229 136 117 79 82 102 67 47
221 264 188 94 151 165 142 106 73 85 144 154 138 220 223 105 4 55 41 39 -29 6 47 73 89 132 103 67 77 87 241 257 96 173 175 197 153 171 115 95 90 83 84 88
208 255 199 205 103 70 60 56 31 42 175 132 180 164 112 -59 47 128 38 24 -58 27 37 53 113 108 36 47 84 197 294 307 131 168 124 132 118 145 154 102 101 101 86 82
188 228 157 152 131 74 68 82 58 60 166 187 180 73 93 37 153 37 10 26 -64 28 45 73 87 92 74 109 237 258 183 182 102 149 123 138 145 121 126 115 121 114 103 90
185 204 140 94 57 108 95 53 53 67 77 143 117 171 5 45 135 49 9 7 37 35 61 46 32 7 23 151 331 413 188 167 122 203 136 116 120 124 125 114 110 105 105 108
185 182 137 157 72 32 77 61 20 55 55 111 91 65 2 37 78 74 54 23 24 6 19 54 24 103 33 85 156 192 170 199 191 133 124 127 125 122 105 95 108 110 100 106
184 191 158 135 34 90 91 1 34 55 28 82 122 60 57 159 217 81 53 31 15 5 15 52 86 87 85 119 178 197 167 187 187 172 123 95 117 150 116 86 93 103 106 95
127 150 140 95 90 51 52 27 -0 9 39 70 107 52 25 3 159 34 54 75 51 25 36 58 96 172 165 143 94 138 146 137 135 101 99 104 109 122 127 107 86 97 90 77
111 123 140 101 74 67 59 26 29 18 59 46 54 38 -12 31 221 26 90 149 109 83 59 67 49 54 129 36 23 66 81 106 115 112 111 115 110 117 112 94 92 76 72 77
140 118 114 80 66 33 46 20 49 22 3 2 1 15 -46 31 -29 -27 31 138 97 79 51 23 -10 34 25 26 78 126 118 128 130 134 139 125 110 109 96 90 83 75 75 62
107 100 82 73 52 24 68 58 39 8 -7 25 4 -5 -33 12 9 -14 18 95 68 44 29 29 55 70 75 83 148 147 120 110 111 133 153 123 94 95 92 96 84 73 59 50
76 87 75 58 49 58 58 46 35 37 56 35 2 -8 -9 -6 51 -73 -13 97 61 36 32 61 83 102 101 86 88 121 101 92 128 135 125 112 119 112 84 76 71 59 47 46
55 74 70 46 46 59 48 35 14 12 12 6 -15 -30 -28 -9 67 29 -42 -8 19 11 44 56 89 106 107 78 78 93 88 98 117 130 119 115 108 89 78 65 52 48 39 41
84 76 58 40 -6 27 72 49 -26 -17 -11 -10 -15 -24 -26 17 53 27 11 -4 -0 9 33 30 58 68 69 80 100 90 86 101 122 118 111 102 87 74 67 54 44 40 38 39
88 89 106 25 41 43 51 28 -18 -17 -17 -17 -16 -26 -31 -17 40 48 30 14 7 10 23 48 64 74 76 78 93 87 83 91 107 110 86 70 73 66 55 50 49 41 44 33

GFSCGP_con_3kmhel_180.txt.gz
Helicity
131 69 -1 10 136 146 88 70 64 71 58 42 96 124 87 94 89 84 75 58 51 67 68 34 34 92 121 170 147 123 227 270 265 225 189 219 363 464 494 214 247 251 268 248
80 66 101 117 117 138 89 60 73 96 80 108 103 108 94 79 71 39 84 103 67 25 35 18 -6 43 115 143 185 179 236 270 254 240 207 297 376 534 515 324 200 195 251 231
102 75 25 130 107 110 118 109 75 76 76 152 135 104 54 29 -11 11 103 160 29 95 85 57 -17 13 83 160 168 243 288 245 267 226 305 355 432 445 424 340 153 121 200 213
44 131 112 81 95 121 165 170 147 115 107 137 197 149 90 -13 50 51 84 132 124 188 121 78 45 2 77 190 210 324 290 257 263 274 291 303 421 498 427 327 173 150 214 226
50 111 138 88 84 163 227 165 150 155 165 141 141 177 187 108 121 44 48 79 287 265 176 30 -51 -14 29 232 333 308 285 255 262 267 292 361 410 510 476 422 234 155 206 223
73 108 95 129 81 99 123 148 174 87 244 191 118 192 277 160 64 53 124 199 176 105 67 -61 -7 73 40 241 394 316 285 236 262 272 314 379 407 468 448 366 136 149 195 203
98 52 228 155 107 86 183 144 123 162 205 201 102 70 160 71 120 133 142 128 104 112 26 12 60 86 137 321 342 286 237 241 259 312 339 389 416 354 430 360 187 137 183 189
76 68 155 243 128 144 138 153 166 235 246 244 153 130 179 68 114 106 135 78 97 77 7 50 18 35 205 309 254 231 209 228 286 302 323 339 302 291 246 295 137 121 155 165
91 126 184 198 149 240 222 166 183 263 235 232 181 199 74 93 40 86 94 100 -48 -12 30 39 13 73 265 208 173 207 182 183 252 278 295 246 228 273 380 153 164 135 157 162
107 144 91 165 177 114 184 160 232 218 209 209 313 193 253 106 122 172 137 17 -59 36 65 59 16 136 165 159 141 158 159 189 240 269 317 303 270 328 309 115 179 166 172 166
88 137 131 153 155 140 216 223 242 308 281 288 272 277 177 117 192 103 -16 10 -20 54 33 42 98 189 128 117 96 125 148 238 313 288 259 263 211 320 183 152 165 166 164 161
73 119 176 176 56 58 206 179 111 313 313 361 301 442 182 152 175 164 -29 42 51 13 12 61 112 101 66 70 96 131 258 329 393 441 357 256 192 400 167 154 154 161 168 190
134 99 128 90 145 169 239 207 173 179 250 286 307 403 232 157 138 38 21 31 8 4 8 30 45 53 65 95 172 215 290 423 494 556 485 244 231 225 177 170 178 192 198 180
164 176 201 247 176 125 144 126 101 172 282 271 306 315 220 215 232 23 47 38 -24 -10 -14 23 49 39 93 130 203 283 375 549 489 499 475 344 256 252 201 161 156 184 174 174
134 172 116 134 143 140 149 105 103 129 156 267 251 188 188 236 208 123 90 6 -26 -12 -4 10 46 46 85 142 238 382 468 499 364 413 417 251 277 248 223 192 156 166 188 166
96 152 103 81 93 73 134 167 131 79 95 145 153 176 162 201 173 77 1 10 23 -2 -4 3 33 42 36 148 216 251 323 358 394 389 303 190 245 239 214 215 159 180 161 138
144 123 75 101 102 51 123 123 117 116 94 119 146 154 86 134 73 117 69 0 5 -11 -11 -9 3 40 63 114 197 206 170 165 223 162 207 152 189 176 201 162 161 160 134 114
192 145 115 119 30 131 127 113 134 121 90 77 97 80 89 160 91 152 36 28 32 -22 -30 -37 50 122 134 217 268 286 266 207 259 249 247 113 71 126 129 125 136 149 133 157
166 176 195 160 143 90 60 91 101 108 69 84 60 65 77 58 78 134 -32 -6 5 -19 5 56 84 172 220 345 416 351 255 234 231 187 188 97 81 119 106 110 151 118 100 88
275 219 264 196 163 127 125 101 111 98 70 59 46 54 59 -19 -25 23 -25 -3 -23 -5 47 159 181 200 233 280 411 408 285 236 246 194 141 104 85 98 117 120 108 100 90 93
232 225 158 155 182 94 62 119 101 79 67 48 -12 30 49 89 -34 3 -32 -39 -23 -22 -9 74 122 69 93 97 213 262 238 220 138 76 55 46 66 106 123 120 111 97 88 87
186 146 173 168 167 69 106 96 89 61 49 28 -25 4 -9 21 -30 58 19 -5 25 31 2 62 72 5 -4 -13 13 30 94 75 62 74 87 79 72 99 111 117 93 76 70 70
172 145 90 111 66 87 77 75 74 77 42 26 24 -8 -2 23 8 20 -2 0 16 -6 -53 -27 31 36 -12 -42 0 9 9 28 39 42 69 97 115 113 104 98 88 75 53 37
150 106 126 128 62 66 56 50 102 90 45 30 39 30 16 19 -12 51 23 25 -11 8 -8 -5 14 27 22 15 16 90 75 74 101 110 102 117 123 126 112 95 62 48 41 42
118 113 139 106 64 75 55 48 102 60 24 35 27 33 22 -2 -27 36 41 13 9 7 14 21 55 56 62 60 91 79 99 118 135 131 127 129 120 115 112 85 52 70 59 32
98 81 151 94 51 91 76 76 57 41 18 26 21 2 30 -31 -3 25 21 37 17 40 51 55 58 95 77 87 99 98 88 117 135 150 132 112 106 100 104 112 128 110 80 79

GFSCGP_con_3kmhel_183.txt.gz
Helicity
28 70 41 12 78 110 103 148 119 138 113 75 100 83 56 103 47 44 74 72 56 51 55 70 81 55 10 40 79 145 215 253 300 276 220 220 221 301 327 308 292 268 221 181
73 57 48 53 96 120 92 126 132 122 112 124 102 60 109 100 66 70 86 99 113 96 153 154 152 140 66 -13 21 136 241 245 289 203 193 217 265 324 351 355 329 526 272 122
98 52 41 101 85 113 105 169 188 196 156 161 110 95 155 37 6 38 69 97 115 152 204 211 196 108 77 44 -10 129 272 274 304 223 257 299 350 432 449 447 477 419 316 257
53 59 100 85 83 111 125 126 178 182 191 143 216 138 167 57 109 73 81 92 172 230 175 154 114 72 54 -21 48 161 333 358 336 246 265 282 346 368 446 449 409 403 430 193
46 93 109 88 56 114 112 172 173 176 158 215 92 152 155 189 96 54 59 122 157 187 173 90 50 42 69 23 75 132 446 399 328 256 294 296 256 336 402 393 341 403 221 208
75 103 82 82 68 93 99 124 117 212 259 178 136 203 180 80 101 116 140 143 142 95 55 10 -47 -40 100 115 141 139 358 370 323 260 249 291 371 441 451 408 331 357 259 320
75 71 87 130 82 60 130 117 73 174 225 217 247 104 144 106 170 166 122 86 56 41 -19 -18 -21 41 60 105 184 182 235 278 241 259 286 313 374 413 397 403 367 363 377 249
78 71 83 113 95 84 76 110 127 223 249 266 165 139 154 177 147 74 -17 -29 -16 -37 -39 60 36 35 75 45 154 123 195 233 218 258 289 347 362 447 470 409 366 417 472 220
85 83 93 141 119 149 123 116 150 230 265 298 262 326 145 108 90 195 150 115 73 59 27 43 43 53 35 106 137 164 192 208 233 240 307 356 419 404 411 349 247 278 424 186
91 104 78 86 125 107 165 162 143 231 245 263 327 313 270 171 185 185 200 101 1 41 75 79 53 56 108 148 130 128 147 155 174 262 315 364 405 403 406 371 332 191 252 151
117 148 115 150 116 132 159 157 214 271 335 365 289 396 239 171 161 235 159 40 45 79 66 13 38 118 69 55 83 79 87 131 156 254 319 336 342 311 295 366 282 143 194 109
78 148 165 141 88 85 101 129 265 325 304 396 365 493 221 168 182 286 231 78 34 39 26 13 55 2 6 51 40 43 80 93 231 325 354 324 283 306 331 343 138 156 161 132
103 145 133 118 129 105 147 173 236 249 335 325 355 424 326 256 158 207 137 3 40 35 24 12 12 29 0 13 52 99 154 227 297 416 424 316 390 277 330 316 213 148 158 173
136 216 243 205 158 110 91 156 161 239 339 292 441 349 314 218 229 157 181 -10 24 33 30 5 2 -9 2 31 121 215 314 418 488 509 366 364 337 285 305 289 172 181 143 172
200 217 177 153 114 90 120 131 133 181 230 323 270 229 309 176 178 159 247 -37 19 19 19 38 47 38 40 121 233 367 411 600 544 530 513 517 355 218 179 184 163 143 167 174
171 180 146 104 63 53 56 144 169 114 121 207 203 210 136 130 83 121 117 42 28 11 10 16 31 34 82 163 289 483 577 552 482 444 386 270 268 186 123 121 108 127 192 174
184 204 153 86 72 9 47 73 100 137 170 207 214 150 85 72 111 148 87 11 -4 18 5 -14 5 51 115 216 278 387 493 420 304 321 309 306 203 169 144 151 130 146 129 110
152 212 202 134 44 70 75 -6 91 145 103 127 94 74 79 99 141 161 90 64 -1 7 -15 -29 -13 42 129 241 302 326 279 152 215 249 134 149 182 134 127 134 132 128 86 87
157 246 267 174 142 44 8 23 68 113 96 99 81 65 72 66 133 105 58 51 -3 -16 34 1 -5 45 181 322 276 259 214 167 194 195 173 156 133 133 129 128 109 98 133 99
151 158 235 263 154 93 80 72 105 102 88 59 69 78 67 45 -69 73 35 43 29 -25 -2 30 105 149 254 334 294 287 231 174 167 130 125 102 148 132 -8 68 128 122 90 95
228 275 193 153 172 70 83 63 109 98 85 68 53 50 31 45 130 57 72 57 40 8 -15 61 123 144 198 261 307 200 163 182 126 125 113 156 73 15 62 107 88 78 86 79
199 194 246 192 168 27 75 76 60 66 80 57 44 42 49 71 -52 28 44 46 33 8 29 89 60 30 87 182 196 159 119 98 64 147 43 115 65 36 47 69 50 78 89 82
206 224 159 147 61 30 24 37 50 68 80 60 58 36 58 41 -50 60 34 18 9 5 -14 -7 37 -5 0 101 91 85 52 -3 40 68 36 13 13 38 31 70 71 68 67 46
118 169 184 116 38 38 30 63 81 96 69 64 60 37 47 57 -50 -60 -1 11 -17 -24 -40 -18 -12 -13 -36 -33 34 5 -20 -16 20 14 25 25 61 58 55 59 50 52 49 50
37 117 129 96 67 51 11 46 83 74 50 55 35 42 37 67 57 39 -14 13 16 11 -10 -13 -20 -27 -53 -48 -11 25 50 34 45 44 55 60 61 68 83 67 45 49 41 38
64 1 93 28 -8 32 68 80 135 65 39 40 16 38 30 32 47 45 28 30 11 42 33 42 29 39 29 39 59 49 54 84 115 97 70 67 94 102 105 115 141 132 99 80

GFSCGP_con_3kmhel_186.txt.gz
Helicity
45 72 56 37 52 62 97 133 144 164 96 135 188 143 152 135 85 95 70 72 71 72 45 52 107 108 79 62 28 19 98 165 179 177 213 203 205 187 209 267 265 282 283 241
71 66 54 61 77 65 84 103 117 53 117 139 140 96 101 97 33 91 93 84 93 58 103 138 142 133 138 103 86 41 48 168 149 191 203 248 222 229 204 270 328 325 303 368
81 67 90 79 94 95 95 138 122 137 136 162 119 153 165 102 65 99 93 31 33 72 121 161 183 165 142 151 94 63 108 159 164 233 303 288 318 299 344 342 387 356 267 241
46 58 90 101 99 132 114 90 100 137 115 132 197 212 150 78 114 78 40 41 91 135 147 155 136 114 137 114 100 127 153 213 275 348 363 305 272 260 262 359 415 431 321 245
58 89 91 99 82 117 75 120 116 134 142 201 162 254 152 143 74 60 66 86 74 72 86 110 93 16 -25 -13 19 70 113 226 238 433 370 368 277 245 313 398 404 439 382 242
90 82 82 70 63 96 82 94 123 151 149 163 166 265 159 134 136 102 134 138 123 114 66 -3 -66 -61 -66 -8 99 122 145 252 252 304 398 325 259 317 356 322 359 346 318 323
86 87 76 93 79 91 120 114 68 95 132 191 277 242 233 126 163 185 190 177 142 100 67 38 49 72 55 72 121 153 150 178 193 237 336 264 279 316 280 310 367 348 300 267
95 97 96 78 75 87 103 111 112 123 141 234 198 175 157 143 151 197 201 173 138 72 -26 44 56 76 41 91 123 122 129 149 170 201 199 233 253 235 259 291 318 281 287 274
67 57 96 104 96 113 110 109 118 167 172 227 262 317 253 58 170 153 162 172 117 -15 40 108 72 73 56 47 42 88 105 85 114 154 182 233 237 263 239 286 318 333 297 327
74 64 58 86 100 100 138 143 153 171 153 200 336 437 244 145 154 143 182 133 114 53 37 32 39 30 19 55 73 70 78 92 112 124 175 232 243 241 258 319 353 340 313 395
71 103 126 157 128 150 191 163 167 171 223 293 339 524 306 204 99 182 139 181 98 51 69 76 32 -2 38 60 88 71 58 93 134 188 186 223 244 269 297 353 439 394 310 255
90 122 145 105 114 115 145 108 192 232 190 370 434 651 242 133 182 107 172 213 141 57 64 25 20 19 65 13 32 34 51 67 90 136 193 231 296 311 330 324 348 329 371 221
125 176 112 123 141 122 213 198 120 164 254 365 364 529 387 285 104 143 189 258 97 63 51 23 -19 99 -27 -9 1 20 62 82 123 157 246 304 284 299 365 426 411 344 337 257
156 195 215 196 160 144 121 113 90 162 263 274 496 372 294 248 139 151 210 170 50 58 47 39 10 3 -13 -17 -25 27 40 74 164 296 321 329 318 362 394 396 407 352 217 204
161 185 188 167 125 116 106 101 107 179 299 330 320 213 258 196 131 196 210 201 -10 18 4 4 5 10 29 65 127 86 72 335 447 358 462 387 429 480 543 470 308 216 215 196
234 185 159 131 126 106 65 92 196 135 109 169 213 268 211 137 166 161 162 130 24 8 9 -31 -4 18 40 125 216 349 490 547 574 709 597 517 466 465 406 250 202 219 194 172
128 161 142 82 91 77 23 74 80 67 124 227 237 219 128 116 99 111 157 70 22 -1 1 -29 -15 57 84 210 292 485 585 662 756 594 404 325 222 295 256 212 142 126 175 176
148 122 145 114 93 72 132 -39 -13 111 95 130 185 124 121 122 118 143 169 26 -16 -27 -26 -7 -0 79 125 121 275 464 175 204 301 283 286 200 237 240 187 154 162 164 158 137
198 224 231 194 188 110 32 14 56 43 18 135 93 64 86 89 140 114 94 90 66 -13 -6 25 -36 27 141 277 372 397 386 220 283 161 125 201 171 145 148 129 143 116 129 128
143 138 249 251 250 155 140 78 21 -22 52 54 81 58 64 49 -68 81 75 40 10 6 -47 14 22 64 199 288 371 293 151 126 68 116 132 147 131 66 99 156 136 124 114 114
174 176 177 190 213 166 103 91 44 61 15 33 69 65 62 56 112 54 77 57 34 33 3 46 84 170 196 272 252 179 79 24 4 133 160 135 150 204 198 182 172 153 154 106
195 193 215 204 210 93 55 73 40 8 3 29 45 62 49 55 46 62 7 34 31 35 28 42 58 68 227 191 210 92 62 35 18 78 110 77 122 64 111 104 72 44 65 82
189 160 183 184 186 36 12 10 35 65 32 52 64 85 69 19 36 57 14 13 10 20 32 24 46 41 45 79 117 90 67 53 35 102 93 15 -19 -13 -3 57 45 49 75 86
129 124 145 123 57 -13 -8 28 100 116 149 37 62 62 73 37 62 -9 8 3 12 -7 16 24 19 23 -18 42 77 62 68 84 79 89 60 -16 -12 -28 -4 55 59 59 59 63
59 97 123 107 60 37 -4 10 22 62 129 103 60 40 50 37 54 58 39 20 7 10 -10 4 31 3 -3 6 31 16 39 1 10 37 20 -26 -4 9 50 61 12 22 29 34
128 148 169 100 76 20 17 61 24 76 78 35 27 3 35 24 24 -12 24 32 10 27 11 -28 -39 -40 -35 -28 -7 1 -6 -14 -3 19 28 30 55 67 73 100 119 84 63 56